KJ6MC Weather Reports


time (UTC)temp
C
wind
direction
speed
KPH
gust
KPH
rain 1hr
cm
rain 24hr
cm
rain mn
cm
humidity
%
barometer
mb
20260506082451 14 211 4.8 12.9 0.00 0.00 0.00 83 1018.3
20260506082351 14 245 4.8 12.9 0.00 0.00 0.00 83 1018.3
20260506082251 14 219 4.8 12.9 0.00 0.00 0.00 83 1018.2
20260506082209 14 250 4.8 12.9 0.00 0.00 0.00 83 1018.3
20260506082151 14 243 4.8 12.9 0.00 0.00 0.00 83 1018.3
20260506082051 14 233 4.8 12.9 0.00 0.00 0.00 83 1018.3
20260506081845 14 250 3.2 9.7 0.00 0.00 0.00 83 1018.3
20260506081746 14 221 3.2 9.7 0.00 0.00 0.00 83 1018.3
20260506081710 14 248 3.2 9.7 0.00 0.00 0.00 83 1018.2
20260506081645 14 238 3.2 9.7 0.00 0.00 0.00 83 1018.3
20260506081545 14 238 3.2 9.7 0.00 0.00 0.00 83 1018.3
20260506081445 14 236 3.2 9.7 0.00 0.00 0.00 83 1018.3
20260506081346 14 242 3.2 9.7 0.00 0.00 0.00 83 1018.2
20260506081245 14 242 3.2 9.7 0.00 0.00 0.00 83 1018.2
20260506081209 14 211 3.2 9.7 0.00 0.00 0.00 83 1018.2
20260506081143 14 211 3.2 9.7 0.00 0.00 0.00 83 1018.2
20260506081041 14 219 3.2 9.7 0.00 0.00 0.00 83 1018.2
20260506080942 14 212 3.2 9.7 0.00 0.00 0.00 83 1018.2
20260506080841 14 233 3.2 9.7 0.00 0.00 0.00 83 1018.2
20260506080741 14 248 3.2 9.7 0.00 0.00 0.00 83 1018.2
20260506080722 14 235 3.2 9.7 0.00 0.00 0.00 83 1018.2
20260506080641 14 289 3.2 9.7 0.00 0.00 0.00 83 1018.2
20260506080541 14 240 3.2 9.7 0.00 0.00 0.00 83 1018.2
20260506080441 14 225 3.2 9.7 0.00 0.00 0.00 83 1018.2
20260506080339 14 174 3.2 9.7 0.00 0.00 0.00 83 1018.2
20260506080240 14 211 3.2 9.7 0.00 0.00 0.00 83 1018.2
20260506080204 14 168 3.2 9.7 0.00 0.00 0.00 83 1018.2
20260506080140 14 141 3.2 9.7 0.00 0.00 0.00 83 1018.2
20260506073523 14 224 3.2 12.9 0.00 0.05 0.00 83 1018.0
20260506073423 14 246 1.6 12.9 0.00 0.05 0.00 83 1018.0
20260506073323 14 215 1.6 9.7 0.00 0.05 0.00 83 1018.0
20260506073203 14 233 3.2 9.7 0.00 0.05 0.00 83 1018.0
20260506073124 14 233 1.6 9.7 0.00 0.05 0.00 83 1017.9
20260506073023 14 221 3.2 9.7 0.00 0.05 0.00 83 1018.0
20260506072923 14 242 3.2 9.7 0.00 0.05 0.00 83 1018.0
20260506072823 14 239 3.2 9.7 0.00 0.05 0.00 83 1017.9
20260506072722 14 219 3.2 9.7 0.00 0.05 0.00 83 1018.0
20260506072703 14 207 3.2 9.7 0.00 0.05 0.00 83 1018.0
20260506072623 14 236 3.2 9.7 0.00 0.05 0.00 83 1018.0
20260506072523 14 236 3.2 9.7 0.00 0.05 0.00 83 1017.9
20260506072423 14 250 3.2 9.7 0.00 0.05 0.00 83 1017.9
20260506072323 14 233 3.2 9.7 0.00 0.05 0.00 83 1017.9
20260506072227 14 233 3.2 9.7 0.00 0.05 0.00 83 1017.9
20260506072216 14 235 3.2 9.7 0.00 0.05 0.00 83 1017.9
20260506072124 14 233 3.2 9.7 0.00 0.05 0.00 83 1017.9
20260506072023 14 188 3.2 9.7 0.00 0.08 0.00 83 1017.9
20260506071932 14 221 1.6 9.7 0.00 0.08 0.00 83 1017.9
20260506071923 14 232 3.2 9.7 0.00 0.08 0.00 83 1017.9
20260506071823 14 243 3.2 9.7 0.00 0.08 0.00 83 1017.8
20260506071814 14 224 1.6 9.7 0.00 0.08 0.00 83 1017.9
20260506071622 14 221 1.6 9.7 0.00 0.08 0.00 83 1017.9
20260506071520 14 240 1.6 9.7 0.00 0.08 0.00 83 1017.8
20260506071417 14 238 1.6 9.7 0.00 0.08 0.00 83 1017.9
20260506071315 14 214 1.6 9.7 0.00 0.08 0.00 83 1017.9
20260506071215 14 235 1.6 9.7 0.00 0.08 0.00 83 1017.9
20260506071201 14 221 1.6 9.7 0.00 0.08 0.00 83 1017.9
20260506071115 14 239 1.6 9.7 0.00 0.08 0.00 83 1017.9
20260506071015 14 231 1.6 9.7 0.00 0.08 0.00 83 1017.9
20260506070915 14 240 1.6 9.7 0.00 0.08 0.00 83 1017.9
20260506070813 14 240 1.6 9.7 0.00 0.08 0.00 83 1017.9
20260506070711 14 240 1.6 9.7 0.00 0.08 0.00 83 1017.8
20260506070701 14 240 1.6 9.7 0.00 0.08 0.00 83 1017.8
20260506070611 14 240 1.6 9.7 0.00 0.08 0.00 83 1017.8
20260506070510 14 240 1.6 9.7 0.00 0.08 0.00 83 1017.8
20260506070409 14 240 1.6 9.7 0.00 0.08 0.00 83 1017.8
20260506070308 14 236 1.6 9.7 0.00 0.10 0.00 83 1017.7
20260506070213 14 243 1.6 4.8 0.00 0.10 0.00 83 1017.7
20260506070203 14 246 1.6 4.8 0.00 0.10 0.00 83 1017.7
20260506070107 14 245 1.6 4.8 0.00 0.10 0.00 83 1017.7
20260506062428 14 253 1.6 11.3 0.00 0.18 0.10 83 1017.3
20260506062327 14 221 1.6 11.3 0.00 0.20 0.10 83 1017.3
20260506062229 14 266 1.6 11.3 0.00 0.20 0.10 83 1017.3
20260506062127 14 266 1.6 11.3 0.00 0.20 0.10 83 1017.3
20260506062021 14 227 1.6 11.3 0.00 0.20 0.10 83 1017.3
20260506061920 14 264 1.6 11.3 0.00 0.20 0.10 83 1017.3
20260506061819 14 211 1.6 9.7 0.00 0.20 0.10 84 1017.2
20260506061720 14 232 1.6 8.0 0.00 0.20 0.10 84 1017.3
20260506061621 14 232 1.6 9.7 0.00 0.20 0.10 84 1017.3
20260506061515 14 242 1.6 9.7 0.00 0.20 0.10 84 1017.2
20260506061415 14 242 1.6 9.7 0.00 0.20 0.10 84 1017.2
20260506061334 14 242 1.6 9.7 0.00 0.20 0.10 84 1017.1
20260506061315 14 242 1.6 9.7 0.00 0.20 0.10 84 1017.2
20260506061230 14 242 1.6 9.7 0.00 0.20 0.10 84 1017.2
20260506061220 14 242 1.6 9.7 0.00 0.20 0.10 84 1017.1
20260506061014 14 241 1.6 9.7 0.00 0.23 0.10 84 1017.1
20260506060912 14 243 1.6 9.7 0.00 0.23 0.10 84 1017.1
20260506060828 14 276 1.6 6.4 0.00 0.23 0.10 84 1017.2
20260506060811 14 242 1.6 9.7 0.00 0.23 0.10 84 1017.1
20260506060724 14 214 1.6 9.7 0.00 0.23 0.10 84 1017.1
20260506060714 14 276 1.6 6.4 0.00 0.23 0.10 84 1017.2
20260506060507 14 245 1.6 6.4 0.00 0.23 0.10 84 1017.2
20260506060405 14 225 1.6 6.4 0.00 0.23 0.10 84 1017.2
20260506060304 14 225 1.6 6.4 0.00 0.23 0.10 84 1017.2
20260506060204 14 219 1.6 6.4 0.00 0.25 0.10 84 1017.2
20260506060111 14 219 1.6 6.4 0.00 0.25 0.10 84 1017.2
20260506051402 15 233 1.6 8.0 0.00 0.33 0.10 83 1016.8
20260506051302 15 233 1.6 8.0 0.00 0.33 0.10 83 1016.8
20260506051201 15 236 1.6 8.0 0.00 0.33 0.10 83 1016.8
20260506051102 15 248 1.6 8.0 0.00 0.33 0.10 83 1016.8
20260506051004 15 224 1.6 8.0 0.00 0.33 0.10 83 1016.8
20260506050901 15 226 1.6 8.0 0.00 0.33 0.10 83 1016.7
20260506050759 15 236 1.6 8.0 0.00 0.33 0.10 83 1016.7
20260506050700 15 148 1.6 8.0 0.00 0.33 0.10 83 1016.7
20260506050558 15 148 3.2 8.0 0.00 0.33 0.10 82 1016.7
20260506050457 15 240 1.6 8.0 0.00 0.33 0.10 82 1016.7
20260506050350 15 240 1.6 8.0 0.00 0.33 0.10 82 1016.6
20260506050250 15 311 1.6 8.0 0.00 0.33 0.10 82 1016.7
20260506050149 15 242 1.6 8.0 0.00 0.33 0.10 82 1016.6
20260506045040 15 235 1.6 6.4 0.00 0.36 0.10 81 1016.6
20260506044940 15 240 1.6 6.4 0.00 0.36 0.10 81 1016.6
20260506044836 15 240 1.6 6.4 0.00 0.36 0.10 81 1016.5
20260506044736 15 239 1.6 8.0 0.00 0.36 0.10 81 1016.5
20260506044634 15 141 3.2 12.9 0.00 0.36 0.10 81 1016.5
20260506044533 15 232 3.2 12.9 0.00 0.36 0.10 81 1016.5
20260506044433 15 262 3.2 12.9 0.00 0.36 0.10 81 1016.4
20260506044327 15 253 3.2 12.9 0.00 0.36 0.10 80 1016.4
20260506044228 15 215 4.8 14.5 0.00 0.36 0.10 80 1016.4
20260506044127 15 216 4.8 14.5 0.00 0.36 0.10 80 1016.4
20260506044028 15 214 4.8 14.5 0.00 0.38 0.10 80 1016.4
20260506043928 15 248 4.8 14.5 0.00 0.38 0.10 80 1016.4
20260506043819 15 239 6.4 14.5 0.00 0.38 0.10 80 1016.3
20260506043719 15 256 6.4 14.5 0.00 0.38 0.10 80 1016.3
20260506043620 15 238 6.4 14.5 0.00 0.38 0.10 80 1016.3
20260506043520 15 248 6.4 14.5 0.00 0.38 0.10 80 1016.3
20260506043421 15 266 4.8 14.5 0.00 0.38 0.10 80 1016.2
20260506043313 15 250 4.8 14.5 0.00 0.38 0.10 80 1016.2
20260506043214 15 212 4.8 12.9 0.00 0.38 0.10 80 1016.2
20260506043114 15 231 4.8 12.9 0.00 0.38 0.10 80 1016.2
20260506043013 15 245 4.8 12.9 0.00 0.38 0.10 80 1016.1
20260506042916 15 231 4.8 12.9 0.00 0.38 0.10 79 1016.1
20260506042808 15 222 4.8 12.9 0.00 0.38 0.10 79 1016.0
20260506042707 15 245 4.8 12.9 0.00 0.41 0.10 79 1016.1
20260506042637 16 250 4.8 14.5 0.00 0.41 0.10 79 1016.1
20260506042607 15 226 4.8 14.5 0.00 0.41 0.10 79 1016.0
20260506042527 16 204 4.8 14.5 0.00 0.41 0.10 79 1016.1
20260506042513 16 250 4.8 14.5 0.00 0.41 0.10 79 1016.1
20260506042305 16 232 4.8 14.5 0.00 0.41 0.10 79 1016.1
20260506042201 16 233 3.2 14.5 0.00 0.41 0.10 79 1016.1
20260506042102 16 233 4.8 17.7 0.00 0.41 0.10 79 1016.1
20260506042001 16 281 4.8 17.7 0.00 0.41 0.10 79 1016.1
20260506041906 16 236 4.8 17.7 0.00 0.41 0.10 79 1016.1
20260506041759 16 250 4.8 17.7 0.00 0.41 0.10 79 1016.1
20260506041700 16 229 3.2 17.7 0.00 0.41 0.10 79 1016.1
20260506041600 16 224 3.2 17.7 0.00 0.41 0.10 79 1016.1
20260506041458 16 226 3.2 17.7 0.00 0.43 0.10 79 1016.1
20260506041357 16 226 3.2 17.7 0.00 0.43 0.10 79 1016.1
20260506041252 16 246 3.2 17.7 0.00 0.43 0.10 79 1016.1
20260506041151 16 214 3.2 17.7 0.00 0.43 0.10 79 1016.1
20260506041052 16 236 3.2 11.3 0.00 0.43 0.10 79 1016.1
20260506040952 16 239 3.2 11.3 0.00 0.43 0.10 79 1016.1
20260506040851 16 231 3.2 11.3 0.00 0.43 0.10 79 1016.1
20260506040745 16 208 3.2 11.3 0.00 0.43 0.10 79 1016.1
20260506040645 16 229 3.2 11.3 0.00 0.43 0.10 79 1016.1
20260506040604 16 239 3.2 12.9 0.00 0.46 0.10 78 1016.1
20260506040545 16 185 3.2 11.3 0.00 0.43 0.10 79 1016.1
20260506040504 16 233 3.2 11.3 0.00 0.43 0.10 79 1016.1
20260506040450 16 239 3.2 12.9 0.00 0.46 0.10 78 1016.1
20260506040240 16 240 3.2 12.9 0.00 0.46 0.10 78 1016.1
20260506040140 16 251 3.2 12.9 0.00 0.46 0.10 78 1016.1
20260506040039 16 253 3.2 12.9 0.00 0.46 0.10 78 1016.1
20260506035939 16 245 3.2 12.9 0.00 0.46 0.10 78 1016.1
20260506035840 16 181 1.6 12.9 0.00 0.46 0.10 78 1016.1
20260506035733 16 219 1.6 12.9 0.00 0.46 0.10 78 1016.1
20260506035632 16 233 1.6 12.9 0.00 0.46 0.10 79 1016.1
20260506035531 16 233 1.6 12.9 0.00 0.46 0.10 78 1016.1
20260506035431 16 249 1.6 12.9 0.00 0.46 0.10 79 1016.0
20260506035333 16 235 1.6 9.7 0.00 0.46 0.10 78 1016.0
20260506035232 16 233 1.6 9.7 0.00 0.46 0.10 78 1016.0
20260506035129 16 240 1.6 9.7 0.00 0.46 0.10 78 1016.0
20260506035028 16 253 1.6 8.0 0.00 0.48 0.10 78 1016.0
20260506034927 16 235 1.6 6.4 0.00 0.48 0.10 79 1016.0
20260506034827 16 240 1.6 6.4 0.00 0.48 0.10 79 1016.0
20260506034726 16 245 1.6 6.4 0.00 0.48 0.10 79 1016.0
20260506034623 16 243 1.6 9.7 0.00 0.51 0.10 79 1015.9
20260506034523 16 239 1.6 9.7 0.00 0.51 0.10 78 1015.9
20260506034421 16 230 1.6 9.7 0.00 0.51 0.10 78 1015.9
20260506034322 16 238 1.6 9.7 0.00 0.51 0.10 78 1015.9
20260506034218 16 211 1.6 9.7 0.00 0.51 0.10 79 1015.9
20260506034118 16 243 1.6 14.5 0.00 0.51 0.10 78 1015.8
20260506034018 16 217 1.6 14.5 0.00 0.53 0.10 79 1015.8
20260506033916 16 236 1.6 14.5 0.00 0.53 0.10 79 1015.8
20260506033815 16 231 1.6 14.5 0.00 0.53 0.10 79 1015.8
20260506033710 16 260 1.6 14.5 0.00 0.56 0.10 79 1015.8
20260506033609 16 228 1.6 14.5 0.00 0.56 0.10 79 1015.8
20260506033509 16 233 1.6 14.5 0.00 0.56 0.10 79 1015.7
20260506033410 16 262 3.2 14.5 0.00 0.58 0.10 79 1015.7
20260506033310 16 262 3.2 14.5 0.00 0.58 0.10 79 1015.7
20260506033202 16 243 3.2 14.5 0.00 0.58 0.10 79 1015.6
20260506033101 16 248 3.2 9.7 0.00 0.58 0.10 79 1015.6
20260506033001 16 231 3.2 9.7 0.00 0.61 0.10 79 1015.6
20260506032902 16 231 1.6 9.7 0.00 0.61 0.10 79 1015.6
20260506032802 16 231 3.2 9.7 0.00 0.61 0.10 79 1015.5
20260506032659 16 232 3.2 9.7 0.00 0.61 0.10 79 1015.5
20260506032559 16 231 3.2 9.7 0.00 0.61 0.10 79 1015.5
20260506032500 16 232 1.6 9.7 0.00 0.61 0.10 79 1015.5
20260506032357 16 222 1.6 6.4 0.00 0.61 0.10 79 1015.5
20260506032258 16 212 1.6 6.4 0.00 0.61 0.10 79 1015.5
20260506032153 16 239 1.6 6.4 0.00 0.61 0.10 79 1015.4
20260506032054 16 235 1.6 6.4 0.00 0.64 0.10 79 1015.4
20260506031954 16 235 1.6 6.4 0.00 0.64 0.10 79 1015.4
20260506031852 16 235 3.2 6.4 0.00 0.64 0.10 79 1015.4
20260506031750 16 226 1.6 6.4 0.00 0.64 0.10 79 1015.4
20260506031646 16 212 1.6 6.4 0.00 0.64 0.10 79 1015.3
20260506031545 16 224 1.6 6.4 0.00 0.64 0.10 79 1015.3
20260506031445 16 203 1.6 6.4 0.00 0.64 0.10 79 1015.4
20260506031345 16 229 1.6 4.8 0.00 0.64 0.10 79 1015.3
20260506031244 16 203 1.6 4.8 0.00 0.64 0.10 79 1015.3
20260506031138 16 214 1.6 4.8 0.00 0.64 0.10 79 1015.3
20260506031037 16 226 1.6 4.8 0.00 0.64 0.10 79 1015.3
20260506030937 16 248 1.6 4.8 0.00 0.64 0.10 79 1015.3
20260506030837 16 210 1.6 4.8 0.00 0.64 0.10 79 1015.4
20260506030740 16 210 1.6 4.8 0.00 0.64 0.10 79 1015.4
20260506030638 16 210 1.6 4.8 0.00 0.64 0.10 79 1015.4
20260506030535 16 210 1.6 4.8 0.00 0.64 0.10 79 1015.4
20260506030435 16 210 1.6 4.8 0.00 0.64 0.10 79 1015.3
20260506030334 16 211 1.6 4.8 0.00 0.64 0.10 79 1015.3
20260506030235 16 218 1.6 4.8 0.00 0.64 0.10 79 1015.3
20260506030127 16 238 1.6 4.8 0.00 0.64 0.10 79 1015.3
20260506030025 16 228 1.6 4.8 0.00 0.64 0.10 79 1015.3
20260506025926 16 228 1.6 4.8 0.00 0.64 0.10 79 1015.3
20260506025826 16 228 1.6 4.8 0.00 0.64 0.10 78 1015.3
20260506025732 16 229 1.6 4.8 0.00 0.64 0.10 78 1015.2
20260506025625 17 228 0.0 4.8 0.00 0.64 0.10 78 1015.2
20260506025524 17 214 0.0 4.8 0.00 0.64 0.10 78 1015.3
20260506025423 17 200 0.0 4.8 0.00 0.64 0.10 78 1015.2
20260506025322 17 200 1.6 4.8 0.00 0.64 0.10 78 1015.2
20260506025223 17 204 1.6 4.8 0.00 0.64 0.10 78 1015.2
20260506025119 17 204 1.6 4.8 0.00 0.64 0.10 78 1015.2
20260506025017 17 204 1.6 4.8 0.00 0.64 0.10 78 1015.1
20260506024918 17 212 1.6 6.4 0.00 0.64 0.10 78 1015.2
20260506024815 17 177 1.6 6.4 0.00 0.64 0.10 77 1015.1
20260506024716 17 177 1.6 6.4 0.00 0.64 0.10 77 1015.1
20260506024611 17 177 1.6 6.4 0.00 0.64 0.10 77 1015.1
20260506024512 17 207 3.2 6.4 0.00 0.64 0.10 77 1015.0
20260506024412 17 214 3.2 8.0 0.00 0.64 0.10 77 1015.0
20260506024310 17 214 3.2 8.0 0.00 0.64 0.10 77 1014.9
20260506024209 17 214 3.2 8.0 0.00 0.64 0.10 77 1015.0
20260506024108 17 232 3.2 8.0 0.00 0.64 0.10 77 1014.9
20260506024005 17 231 3.2 8.0 0.00 0.64 0.10 76 1014.9
20260506023905 17 208 3.2 8.0 0.00 0.64 0.10 77 1014.9
20260506023804 17 225 3.2 8.0 0.00 0.64 0.10 76 1014.9
20260506023704 17 233 3.2 8.0 0.00 0.64 0.10 76 1014.9
20260506023557 17 204 3.2 8.0 0.00 0.64 0.10 76 1014.8
20260506023456 17 204 3.2 8.0 0.00 0.64 0.10 76 1014.9
20260506023417 17 245 3.2 9.7 0.00 0.64 0.10 76 1014.7
20260506023356 17 228 3.2 8.0 0.00 0.64 0.10 76 1014.8
20260506023315 17 231 3.2 9.7 0.00 0.64 0.10 76 1014.7
20260506023304 17 245 3.2 9.7 0.00 0.64 0.10 76 1014.7
20260506023050 17 170 4.8 9.7 0.00 0.64 0.10 76 1014.7
20260506022950 17 207 4.8 9.7 0.00 0.64 0.10 76 1014.7
20260506022849 17 203 4.8 9.7 0.00 0.64 0.10 76 1014.7
20260506022750 17 233 4.8 9.7 0.00 0.64 0.10 76 1014.8
20260506022651 17 231 3.2 9.7 0.00 0.64 0.10 76 1014.8
20260506022544 17 214 3.2 9.7 0.00 0.64 0.10 76 1014.8
20260506022444 17 231 3.2 9.7 0.00 0.64 0.10 76 1014.8
20260506022343 17 149 3.2 9.7 0.00 0.64 0.10 76 1014.8
20260506022243 17 203 3.2 8.0 0.00 0.64 0.10 76 1014.9
20260506022144 17 204 3.2 6.4 0.00 0.64 0.10 76 1014.8
20260506022038 17 229 3.2 8.0 0.00 0.64 0.10 76 1014.8
20260506021937 17 174 3.2 9.7 0.00 0.64 0.10 76 1014.9
20260506021857 17 155 4.8 11.3 0.00 0.64 0.10 76 1014.8
20260506021837 17 155 3.2 9.7 0.00 0.64 0.10 76 1014.8
20260506021753 17 158 3.2 11.3 0.00 0.64 0.10 76 1014.9
20260506021742 17 155 4.8 11.3 0.00 0.64 0.10 76 1014.8
20260506021538 17 155 4.8 11.3 0.00 0.64 0.10 76 1014.8
20260506021435 17 155 4.8 11.3 0.00 0.64 0.10 76 1014.8
20260506021333 17 222 4.8 11.3 0.00 0.64 0.10 76 1014.9
20260506021234 17 238 4.8 11.3 0.00 0.64 0.10 76 1014.8
20260506021134 17 238 4.8 11.3 0.00 0.64 0.10 76 1014.9
20260506021026 17 231 4.8 11.3 0.00 0.64 0.10 76 1014.7
20260506020926 17 250 4.8 11.3 0.00 0.64 0.10 76 1014.8
20260506020825 17 250 4.8 11.3 0.00 0.64 0.10 76 1014.7
20260506020726 17 258 4.8 11.3 0.00 0.64 0.10 76 1014.7
20260506020627 17 221 4.8 9.7 0.00 0.64 0.10 76 1014.7
20260506020519 17 219 4.8 9.7 0.00 0.64 0.10 76 1014.7
20260506020419 17 203 4.8 9.7 0.00 0.64 0.10 76 1014.8
20260506020320 17 207 4.8 11.3 0.00 0.64 0.10 76 1014.8
20260506020220 17 136 4.8 11.3 0.00 0.64 0.10 75 1014.9
20260506020121 17 253 4.8 11.3 0.00 0.64 0.10 75 1014.9
20260506020017 17 186 4.8 11.3 0.00 0.64 0.10 75 1014.8
20260506015917 17 231 4.8 11.3 0.00 0.64 0.10 75 1014.8
20260506015816 17 231 4.8 11.3 0.00 0.64 0.10 75 1014.8
20260506015716 17 202 4.8 11.3 0.00 0.64 0.10 75 1014.8
20260506015615 17 238 4.8 12.9 0.00 0.64 0.10 75 1014.8
20260506015507 17 136 4.8 12.9 0.00 0.64 0.10 75 1014.8
20260506015408 17 195 4.8 12.9 0.00 0.64 0.10 75 1014.8
20260506015308 18 204 4.8 12.9 0.00 0.64 0.10 75 1014.7
20260506015207 18 208 3.2 12.9 0.00 0.64 0.10 75 1014.7
20260506015110 18 219 3.2 12.9 0.00 0.64 0.10 74 1014.7
20260506015002 18 215 3.2 12.9 0.00 0.64 0.10 74 1014.7
20260506014901 18 144 3.2 12.9 0.00 0.64 0.10 74 1014.7
20260506014801 18 226 3.2 12.9 0.00 0.64 0.10 74 1014.7
20260506014702 18 124 3.2 12.9 0.00 0.64 0.10 74 1014.7
20260506014607 18 153 3.2 11.3 0.00 0.64 0.10 74 1014.7
20260506014455 18 122 3.2 11.3 0.00 0.64 0.10 74 1014.6
20260506014356 18 141 3.2 11.3 0.00 0.64 0.10 74 1014.7
20260506014255 18 139 3.2 11.3 0.00 0.64 0.10 73 1014.7
20260506014155 18 132 3.2 11.3 0.00 0.64 0.10 73 1014.7
20260506014058 18 143 4.8 11.3 0.00 0.64 0.10 73 1014.6
20260506013954 18 147 3.2 9.7 0.00 0.64 0.10 73 1014.6
20260506013853 18 186 3.2 9.7 0.00 0.64 0.10 72 1014.7
20260506013753 18 146 3.2 9.7 0.00 0.64 0.10 72 1014.7
20260506013651 18 141 3.2 9.7 0.00 0.64 0.10 72 1014.7
20260506013552 18 217 3.2 9.7 0.00 0.64 0.10 72 1014.7
20260506013444 18 200 3.2 9.7 0.00 0.64 0.10 72 1014.7
20260506013344 18 225 3.2 9.7 0.00 0.66 0.10 71 1014.7
20260506013244 18 236 3.2 8.0 0.00 0.66 0.10 71 1014.7
20260506013143 18 200 3.2 8.0 0.00 0.66 0.10 70 1014.7
20260506013045 18 141 1.6 8.0 0.00 0.66 0.10 70 1014.7
20260506012938 18 110 1.6 8.0 0.00 0.66 0.10 70 1014.7
20260506012838 18 158 1.6 8.0 0.00 0.66 0.10 70 1014.7
20260506012800 18 215 3.2 8.0 0.00 0.66 0.10 70 1014.6
20260506012738 18 146 3.2 8.0 0.00 0.66 0.10 70 1014.7
20260506012655 18 129 3.2 8.0 0.00 0.66 0.10 69 1014.6
20260506012645 18 215 3.2 8.0 0.00 0.66 0.10 70 1014.6
20260506012432 18 116 3.2 8.0 0.00 0.66 0.10 70 1014.6
20260506012251 18 225 3.2 8.0 0.00 0.66 0.10 71 1014.6
20260506012232 18 134 3.2 8.0 0.00 0.66 0.10 70 1014.6
20260506012147 18 122 3.2 8.0 0.00 0.66 0.10 71 1014.6
20260506012137 18 225 3.2 8.0 0.00 0.66 0.10 71 1014.6
20260506011927 18 118 3.2 9.7 0.00 0.66 0.10 71 1014.6
20260506011826 18 120 3.2 9.7 0.00 0.66 0.10 71 1014.6
20260506011748 18 207 3.2 9.7 0.00 0.66 0.10 71 1014.6
20260506011726 18 192 3.2 9.7 0.00 0.66 0.10 71 1014.6
20260506011643 18 200 3.2 9.7 0.00 0.66 0.10 71 1014.6
20260506011633 18 207 3.2 9.7 0.00 0.66 0.10 71 1014.6
20260506011422 18 160 3.2 9.7 0.00 0.66 0.10 71 1014.5
20260506011322 18 240 3.2 9.7 0.00 0.66 0.10 72 1014.5
20260506011222 18 150 3.2 9.7 0.00 0.66 0.10 72 1014.5
20260506011122 18 205 3.2 9.7 0.00 0.66 0.10 72 1014.5
20260506011021 18 136 3.2 9.7 0.00 0.66 0.10 72 1014.5
20260506010917 18 163 3.2 6.4 0.00 0.66 0.10 73 1014.5
20260506010817 18 136 3.2 6.4 0.00 0.66 0.10 73 1014.5
20260506010717 18 139 3.2 9.7 0.00 0.66 0.10 73 1014.5
20260506010616 18 134 3.2 9.7 0.00 0.66 0.10 73 1014.5
20260506010516 18 124 3.2 9.7 0.00 0.66 0.10 73 1014.5
20260506010408 18 115 3.2 9.7 0.00 0.66 0.10 73 1014.4
20260506010307 18 116 3.2 9.7 0.00 0.66 0.10 73 1014.5
20260506010240 18 233 3.2 9.7 0.00 0.69 0.10 73 1014.5
20260506010207 18 167 3.2 9.7 0.00 0.66 0.10 73 1014.5
20260506010125 18 127 1.6 9.7 0.00 0.69 0.10 73 1014.5
20260506010114 18 233 3.2 9.7 0.00 0.69 0.10 73 1014.5
20260506005906 18 221 3.2 9.7 0.00 0.69 0.10 73 1014.5
20260506005805 18 151 3.2 9.7 0.00 0.69 0.10 73 1014.5
20260506005724 18 229 3.2 11.3 0.00 0.69 0.10 74 1014.5
20260506005705 18 176 3.2 8.0 0.00 0.69 0.10 73 1014.5
20260506005618 18 174 3.2 9.7 0.00 0.69 0.10 73 1014.4
20260506005608 18 229 3.2 11.3 0.00 0.69 0.10 74 1014.5
20260506005357 17 230 3.2 11.3 0.00 0.69 0.10 74 1014.4
20260506005257 17 231 3.2 11.3 0.00 0.69 0.10 74 1014.4
20260506005157 17 230 4.8 11.3 0.00 0.69 0.10 74 1014.4
20260506005058 17 138 3.2 11.3 0.00 0.69 0.10 73 1014.4
20260506004957 17 190 3.2 11.3 0.00 0.69 0.10 74 1014.4
20260506004850 17 172 3.2 11.3 0.00 0.69 0.10 74 1014.4
20260506004749 17 150 4.8 11.3 0.00 0.69 0.10 74 1014.4
20260506004649 17 160 4.8 11.3 0.00 0.69 0.10 74 1014.4
20260506004550 17 226 3.2 11.3 0.00 0.69 0.10 74 1014.4
20260506004347 17 168 3.2 11.3 0.00 0.69 0.10 75 1014.4
20260506004248 17 217 3.2 9.7 0.00 0.69 0.10 75 1014.4
20260506004147 17 229 3.2 9.7 0.00 0.69 0.10 75 1014.4
20260506004045 17 226 4.8 9.7 0.00 0.69 0.10 74 1014.4
20260506003946 17 235 3.2 9.7 0.00 0.69 0.10 74 1014.4
20260506003839 18 197 3.2 9.7 0.00 0.69 0.10 74 1014.4
20260506003740 18 141 3.2 8.0 0.00 0.69 0.10 75 1014.4
20260506003639 18 239 3.2 8.0 0.00 0.69 0.10 75 1014.4
20260506003540 18 148 3.2 8.0 0.00 0.69 0.10 75 1014.4
20260506003440 17 107 3.2 6.4 0.00 0.69 0.10 75 1014.4
20260506003333 17 221 3.2 6.4 0.00 0.69 0.10 75 1014.4
20260506003232 17 221 3.2 6.4 0.00 0.69 0.10 75 1014.4
20260506003131 17 207 3.2 6.4 0.00 0.69 0.10 75 1014.5
20260506003031 17 213 3.2 8.0 0.00 0.69 0.10 76 1014.5
20260506002934 17 217 3.2 8.0 0.00 0.69 0.10 76 1014.4
20260506002828 17 228 4.8 11.3 0.00 0.69 0.10 76 1014.4
20260506002725 17 217 4.8 11.3 0.00 0.69 0.10 76 1014.3
20260506002703 17 238 4.8 11.3 0.00 0.69 0.10 75 1014.4
20260506002625 17 235 4.8 11.3 0.00 0.69 0.10 76 1014.4
20260506002545 17 229 4.8 11.3 0.00 0.69 0.10 75 1014.4
20260506002534 17 238 4.8 11.3 0.00 0.69 0.10 75 1014.4
20260506002319 17 238 4.8 11.3 0.00 0.69 0.10 75 1014.4
20260506002219 17 238 4.8 11.3 0.00 0.69 0.10 74 1014.4
20260506002119 17 241 4.8 11.3 0.00 0.69 0.10 74 1014.4
20260506002019 17 267 4.8 11.3 0.00 0.69 0.10 74 1014.4
20260506001921 17 236 4.8 11.3 0.00 0.69 0.10 75 1014.4
20260506001814 17 238 4.8 11.3 0.00 0.69 0.10 75 1014.4
20260506001714 17 236 4.8 11.3 0.00 0.69 0.10 75 1014.4
20260506001648 17 193 4.8 11.3 0.00 0.69 0.10 75 1014.4
20260506001613 17 225 4.8 11.3 0.00 0.69 0.10 75 1014.4
20260506001547 17 200 4.8 11.3 0.00 0.69 0.10 75 1014.4
20260506001534 17 193 4.8 11.3 0.00 0.69 0.10 75 1014.4
20260506001309 17 181 4.8 11.3 0.00 0.69 0.10 75 1014.4
20260506001210 17 219 4.8 11.3 0.00 0.69 0.10 74 1014.4
20260506001109 17 225 4.8 11.3 0.00 0.69 0.10 74 1014.4
20260506001009 17 233 4.8 11.3 0.00 0.69 0.10 75 1014.4
20260506000911 17 224 4.8 9.7 0.00 0.69 0.10 75 1014.4
20260506000802 17 231 4.8 9.7 0.00 0.69 0.10 75 1014.4
20260506000701 17 172 4.8 9.7 0.00 0.69 0.10 75 1014.4
20260506000602 17 135 4.8 9.7 0.00 0.69 0.10 75 1014.4
20260506000502 17 210 4.8 9.7 0.00 0.69 0.10 75 1014.4
20260506000404 17 150 4.8 9.7 0.00 0.69 0.10 75 1014.4
20260506000256 17 176 4.8 9.7 0.00 0.69 0.10 74 1014.4
20260506000157 17 211 4.8 9.7 0.00 0.69 0.10 75 1014.4
20260506000056 17 195 4.8 9.7 0.00 0.69 0.10 75 1014.4
20260505235955 17 231 4.8 9.7 0.00 0.69 0.10 75 1014.4
20260505235858 17 228 4.8 9.7 0.00 0.69 0.10 75 1014.4
20260505235751 17 215 4.8 9.7 0.00 0.69 0.10 75 1014.4
20260505235650 17 204 4.8 9.7 0.00 0.69 0.10 75 1014.4
20260505235610 17 242 4.8 9.7 0.00 0.69 0.10 75 1014.4
20260505235549 17 225 4.8 9.7 0.00 0.69 0.10 74 1014.4
20260505235511 17 250 4.8 9.7 0.00 0.69 0.10 74 1014.4
20260505235455 17 242 4.8 9.7 0.00 0.69 0.10 75 1014.4
20260505235243 17 155 4.8 9.7 0.00 0.69 0.10 74 1014.4
20260505235143 17 207 4.8 9.7 0.00 0.69 0.10 74 1014.4
20260505235043 17 239 4.8 9.7 0.00 0.69 0.10 74 1014.4
20260505234944 17 239 4.8 9.7 0.00 0.69 0.10 74 1014.4
20260505234845 18 219 4.8 9.7 0.00 0.69 0.10 74 1014.4
20260505234739 18 167 3.2 9.7 0.00 0.69 0.10 74 1014.4
20260505234640 18 238 3.2 9.7 0.00 0.69 0.10 74 1014.4
20260505234540 18 217 3.2 8.0 0.00 0.69 0.10 74 1014.4
20260505234439 18 221 3.2 11.3 0.00 0.69 0.10 74 1014.4
20260505234353 18 207 3.2 11.3 0.00 0.69 0.10 74 1014.4
20260505234233 18 121 3.2 11.3 0.00 0.69 0.10 74 1014.3
20260505234132 18 212 3.2 11.3 0.00 0.69 0.10 74 1014.3
20260505234056 18 174 3.2 11.3 0.00 0.69 0.10 73 1014.3
20260505234031 18 174 3.2 11.3 0.00 0.69 0.10 73 1014.3
20260505233949 18 208 3.2 11.3 0.00 0.69 0.10 73 1014.3
20260505233939 18 174 3.2 11.3 0.00 0.69 0.10 73 1014.3
20260505233727 18 194 3.2 11.3 0.00 0.69 0.10 74 1014.3
20260505233627 18 148 3.2 11.3 0.00 0.69 0.10 73 1014.3
20260505233551 18 232 3.2 8.0 0.00 0.69 0.10 74 1014.3
20260505233527 18 197 3.2 11.3 0.00 0.69 0.10 74 1014.3
20260505233446 18 235 3.2 8.0 0.00 0.69 0.10 74 1014.4
20260505233433 18 232 3.2 8.0 0.00 0.69 0.10 74 1014.3
20260505233224 18 219 3.2 8.0 0.00 0.69 0.10 74 1014.3
20260505233123 18 236 3.2 8.0 0.00 0.69 0.10 74 1014.3
20260505233024 18 231 3.2 8.0 0.00 0.69 0.10 74 1014.3
20260505232921 18 242 3.2 8.0 0.00 0.69 0.10 74 1014.3
20260505232821 18 208 3.2 8.0 0.00 0.69 0.10 74 1014.3
20260505232714 18 143 3.2 8.0 0.00 0.69 0.10 73 1014.4
20260505232613 18 140 3.2 8.0 0.00 0.69 0.10 73 1014.4
20260505232513 18 225 3.2 8.0 0.00 0.69 0.10 74 1014.4
20260505232414 18 217 3.2 12.9 0.00 0.69 0.10 74 1014.3
20260505232316 18 170 3.2 12.9 0.00 0.69 0.10 74 1014.4
20260505232212 18 143 3.2 12.9 0.00 0.69 0.10 74 1014.4
20260505232111 18 204 3.2 12.9 0.00 0.69 0.10 74 1014.4
20260505232027 18 231 3.2 12.9 0.00 0.69 0.10 74 1014.3
20260505232011 18 134 3.2 12.9 0.00 0.69 0.10 74 1014.3
20260505231923 18 200 3.2 12.9 0.00 0.69 0.10 74 1014.3
20260505231913 18 231 3.2 12.9 0.00 0.69 0.10 74 1014.3
20260505231705 18 226 3.2 12.9 0.00 0.69 0.10 74 1014.3
20260505231606 18 115 3.2 12.9 0.00 0.69 0.10 74 1014.3
20260505231504 18 181 3.2 12.9 0.00 0.69 0.10 73 1014.3
20260505231404 18 217 3.2 8.0 0.00 0.69 0.10 74 1014.3
20260505231303 18 150 3.2 8.0 0.00 0.69 0.10 74 1014.3
20260505231157 18 152 3.2 8.0 0.00 0.69 0.10 74 1014.3
20260505231057 17 141 3.2 8.0 0.00 0.69 0.10 74 1014.3
20260505230958 17 232 3.2 9.7 0.00 0.69 0.10 74 1014.3
20260505230857 18 225 3.2 9.7 0.00 0.69 0.10 73 1014.3
20260505230837 18 231 3.2 9.7 0.00 0.69 0.10 73 1014.3
20260505230758 18 231 3.2 9.7 0.00 0.69 0.10 73 1014.3
20260505230650 18 233 3.2 9.7 0.00 0.69 0.10 73 1014.3
20260505230549 18 245 3.2 9.7 0.00 0.71 0.10 73 1014.4
20260505230449 18 255 3.2 9.7 0.00 0.71 0.10 74 1014.3
20260505230349 18 143 3.2 9.7 0.00 0.71 0.10 73 1014.3
20260505230251 18 226 3.2 9.7 0.00 0.71 0.10 73 1014.3
20260505230146 18 218 3.2 9.7 0.00 0.71 0.10 73 1014.4
20260505230046 18 165 3.2 9.7 0.00 0.71 0.10 74 1014.4
20260505225945 18 150 3.2 8.0 0.00 0.71 0.10 74 1014.4
20260505225846 18 170 3.2 8.0 0.00 0.71 0.10 74 1014.4
20260505225746 18 239 3.2 8.0 0.00 0.71 0.10 74 1014.4
20260505225639 18 150 3.2 8.0 0.00 0.71 0.10 74 1014.4
20260505225537 18 235 3.2 8.0 0.00 0.71 0.10 74 1014.4
20260505225436 18 236 3.2 8.0 0.00 0.71 0.10 74 1014.4
20260505225337 18 236 3.2 8.0 0.00 0.71 0.10 73 1014.4
20260505225241 18 214 3.2 8.0 0.00 0.71 0.10 73 1014.4
20260505225131 18 238 3.2 8.0 0.00 0.71 0.10 74 1014.4
20260505225032 18 200 3.2 8.0 0.00 0.71 0.10 74 1014.4
20260505224931 18 225 3.2 9.7 0.00 0.71 0.10 74 1014.4
20260505224832 18 228 3.2 9.7 0.00 0.71 0.10 74 1014.4
20260505224734 18 181 3.2 9.7 0.00 0.71 0.10 74 1014.4
20260505224631 18 240 3.2 9.7 0.00 0.71 0.10 74 1014.4
20260505224529 18 219 3.2 9.7 0.00 0.71 0.10 74 1014.5
20260505224429 18 198 3.2 9.7 0.00 0.71 0.10 74 1014.4
20260505224328 18 208 3.2 9.7 0.00 0.71 0.10 74 1014.4
20260505224227 18 185 3.2 9.7 0.00 0.71 0.10 74 1014.5
20260505224120 18 221 3.2 9.7 0.00 0.71 0.10 73 1014.4
20260505224019 18 232 3.2 9.7 0.00 0.71 0.10 73 1014.4
20260505223920 18 224 3.2 9.7 0.00 0.71 0.10 73 1014.5
20260505223820 18 242 3.2 9.7 0.00 0.71 0.10 72 1014.5
20260505223720 18 225 3.2 8.0 0.00 0.71 0.10 73 1014.5
20260505223620 18 137 3.2 8.0 0.00 0.71 0.10 72 1014.5
20260505223518 18 137 4.8 8.0 0.00 0.71 0.10 72 1014.5
20260505223418 18 223 4.8 8.0 0.00 0.71 0.10 71 1014.5
20260505223315 18 212 4.8 8.0 0.00 0.71 0.10 71 1014.6
20260505223215 18 186 4.8 8.0 0.00 0.71 0.10 70 1014.6
20260505223109 18 132 4.8 8.0 0.00 0.71 0.10 70 1014.6
20260505223007 18 191 4.8 9.7 0.00 0.71 0.10 70 1014.6
20260505222908 18 243 4.8 9.7 0.00 0.71 0.10 70 1014.6
20260505222807 18 248 4.8 9.7 0.00 0.71 0.10 70 1014.6
20260505222710 18 136 4.8 9.7 0.00 0.71 0.10 70 1014.6
20260505222601 19 212 4.8 9.7 0.00 0.71 0.10 69 1014.6
20260505222501 19 218 3.2 9.7 0.00 0.71 0.10 69 1014.6
20260505222402 19 203 3.2 9.7 0.00 0.71 0.10 69 1014.6
20260505222301 19 205 3.2 9.7 0.00 0.71 0.10 68 1014.6
20260505222202 19 135 3.2 9.7 0.00 0.71 0.10 68 1014.6
20260505222100 19 211 3.2 9.7 0.00 0.71 0.10 68 1014.6
20260505221959 19 236 3.2 9.7 0.00 0.71 0.10 68 1014.6
20260505221900 19 105 3.2 9.7 0.00 0.71 0.10 68 1014.7
20260505221757 19 161 3.2 9.7 0.00 0.71 0.10 67 1014.7
20260505221657 19 238 3.2 9.7 0.00 0.71 0.10 66 1014.7
20260505221550 20 204 3.2 8.0 0.00 0.71 0.10 66 1014.7
20260505221450 20 228 3.2 8.0 0.00 0.71 0.10 66 1014.7
20260505221349 20 167 3.2 8.0 0.00 0.71 0.10 66 1014.7
20260505221250 20 116 3.2 8.0 0.00 0.71 0.10 66 1014.7
20260505221151 20 150 1.6 8.0 0.00 0.71 0.10 67 1014.7
20260505221045 20 134 1.6 8.0 0.00 0.71 0.10 68 1014.7
20260505220945 20 117 1.6 8.0 0.00 0.71 0.10 68 1014.7
20260505220851 18 125 1.6 9.7 0.00 0.71 0.10 69 1014.7
20260505220846 20 231 1.6 8.0 0.00 0.71 0.10 68 1014.7
20260505220751 19 164 1.6 8.0 0.00 0.71 0.10 68 1014.7
20260505220736 19 135 1.6 6.4 0.00 0.71 0.10 68 1014.7
20260505220539 19 98 1.6 6.4 0.00 0.71 0.10 68 1014.7
20260505220515 19 136 1.6 6.4 0.00 0.71 0.10 69 1014.7
20260505220340 19 126 1.6 6.4 0.00 0.71 0.10 69 1014.7
20260505220254 18 125 1.6 6.4 0.00 0.71 0.10 69 1014.7
20260505220243 18 125 1.6 9.7 0.00 0.71 0.10 69 1014.7
20260505220033 18 152 3.2 9.7 0.00 0.71 0.10 70 1014.8
20260505215933 18 76 3.2 9.7 0.00 0.71 0.10 69 1014.7
20260505215834 18 108 3.2 9.7 0.00 0.71 0.10 70 1014.8
20260505215733 18 78 1.6 9.7 0.00 0.71 0.10 71 1014.8
20260505215633 18 150 1.6 9.7 0.00 0.71 0.10 70 1014.8
20260505215529 18 277 1.6 9.7 0.00 0.71 0.10 71 1014.7
20260505215430 18 273 1.6 9.7 0.00 0.71 0.10 71 1014.8
20260505215329 18 260 1.6 9.7 0.00 0.71 0.10 70 1014.8
20260505215228 18 200 1.6 9.7 0.00 0.71 0.10 70 1014.8
20260505215128 18 155 1.6 8.0 0.00 0.71 0.10 69 1014.8
20260505215020 18 153 1.6 8.0 0.00 0.71 0.10 70 1014.8
20260505214919 18 212 1.6 6.4 0.00 0.71 0.10 71 1014.8
20260505214844 18 224 1.6 6.4 0.00 0.71 0.10 70 1014.8
20260505214820 18 245 1.6 6.4 0.00 0.71 0.10 70 1014.8
20260505214738 18 224 1.6 6.4 0.00 0.71 0.10 70 1014.8
20260505214728 18 224 1.6 6.4 0.00 0.71 0.10 70 1014.8
20260505214517 18 260 1.6 6.4 0.00 0.71 0.10 69 1014.8
20260505214418 18 260 1.6 6.4 0.00 0.71 0.10 69 1014.9
20260505214317 18 257 1.6 6.4 0.00 0.71 0.10 69 1014.9
20260505214215 18 227 1.6 6.4 0.00 0.71 0.10 70 1014.9
20260505214116 18 141 1.6 6.4 0.00 0.71 0.10 70 1014.9
20260505214010 18 126 1.6 6.4 0.00 0.71 0.10 70 1014.9
20260505213908 18 149 1.6 6.4 0.00 0.71 0.10 71 1014.9
20260505213807 18 210 1.6 6.4 0.00 0.71 0.10 70 1014.9
20260505213707 18 219 1.6 6.4 0.00 0.71 0.10 70 1014.9
20260505213610 18 150 1.6 6.4 0.00 0.71 0.10 71 1014.9
20260505213503 18 105 0.0 3.2 0.00 0.71 0.10 71 1014.9
20260505213403 18 151 0.0 3.2 0.00 0.71 0.10 71 1014.9
20260505213304 18 163 0.0 3.2 0.00 0.71 0.10 72 1014.9
20260505213204 18 58 0.0 3.2 0.00 0.71 0.10 72 1014.9
20260505213106 18 33 0.0 3.2 0.00 0.71 0.10 72 1014.9
20260505213002 18 34 0.0 3.2 0.00 0.71 0.10 72 1014.9
20260505212900 18 36 0.0 3.2 0.00 0.71 0.10 72 1015.0
20260505212759 18 70 0.0 3.2 0.00 0.71 0.10 72 1014.9
20260505212657 18 74 0.0 3.2 0.00 0.71 0.10 72 1015.0
20260505212600 18 13 0.0 3.2 0.00 0.71 0.10 72 1015.0
20260505212455 18 13 0.0 3.2 0.00 0.71 0.10 72 1014.9
20260505212353 18 97 0.0 1.6 0.00 0.71 0.10 71 1015.0
20260505212254 18 117 0.0 1.6 0.00 0.71 0.10 72 1015.0
20260505212152 18 117 0.0 3.2 0.00 0.71 0.10 72 1015.0
20260505212050 18 117 0.0 3.2 0.00 0.71 0.10 73 1015.0
20260505211949 18 117 0.0 3.2 0.00 0.71 0.10 73 1015.0
20260505211848 18 117 1.6 4.8 0.00 0.71 0.10 74 1015.0
20260505211747 18 231 1.6 4.8 0.00 0.71 0.10 74 1015.0
20260505211645 18 231 1.6 4.8 0.00 0.71 0.10 76 1015.0
20260505211545 18 231 1.6 4.8 0.00 0.71 0.10 76 1015.0
20260505211439 18 231 1.6 4.8 0.00 0.71 0.10 76 1015.0
20260505211337 18 231 1.6 4.8 0.00 0.71 0.10 75 1015.0
20260505211238 18 231 1.6 4.8 0.00 0.71 0.10 75 1015.0
20260505211137 18 228 1.6 8.0 0.00 0.71 0.10 76 1015.0
20260505211040 17 228 1.6 8.0 0.00 0.71 0.10 76 1015.0
20260505210933 17 210 1.6 8.0 0.00 0.71 0.10 77 1015.0
20260505210834 17 146 1.6 8.0 0.00 0.71 0.10 77 1015.0
20260505210733 17 145 1.6 8.0 0.00 0.71 0.10 77 1015.1
20260505210633 17 115 1.6 8.0 0.00 0.71 0.10 78 1015.0
20260505210533 17 179 1.6 8.0 0.00 0.71 0.10 79 1015.1
20260505210428 17 179 1.6 8.0 0.00 0.71 0.10 79 1015.1
20260505210328 17 146 3.2 8.0 0.00 0.71 0.10 79 1015.0
20260505210227 17 219 3.2 8.0 0.00 0.71 0.10 79 1015.1
20260505210127 17 217 3.2 8.0 0.00 0.71 0.10 79 1015.0
20260505210029 17 217 3.2 8.0 0.00 0.71 0.10 79 1015.1
20260505205919 17 226 3.2 8.0 0.00 0.71 0.10 78 1015.1
20260505205820 17 238 3.2 8.0 0.00 0.71 0.10 79 1015.0
20260505205741 16 207 3.2 8.0 0.00 0.71 0.10 79 1015.0
20260505205720 16 248 3.2 8.0 0.00 0.71 0.10 79 1015.0
20260505205636 16 236 3.2 8.0 0.00 0.71 0.10 80 1015.1
20260505205626 16 207 3.2 8.0 0.00 0.71 0.10 79 1015.0
20260505205415 16 184 3.2 8.0 0.00 0.71 0.10 79 1015.1
20260505205313 16 238 3.2 9.7 0.00 0.71 0.10 80 1015.1
20260505205215 16 160 3.2 9.7 0.00 0.71 0.10 80 1015.0
20260505205113 16 193 3.2 9.7 0.00 0.71 0.10 80 1015.1
20260505205016 16 222 1.6 9.7 0.00 0.71 0.10 80 1015.1
20260505204907 16 222 1.6 9.7 0.00 0.71 0.10 80 1015.1
20260505204808 16 235 1.6 9.7 0.00 0.71 0.10 80 1015.1
20260505204729 16 232 1.6 9.7 0.00 0.71 0.10 81 1015.1
20260505204707 16 141 1.6 9.7 0.00 0.71 0.10 79 1015.1
20260505204624 16 233 1.6 9.7 0.00 0.71 0.10 80 1015.1
20260505204614 16 232 1.6 9.7 0.00 0.71 0.10 81 1015.1
20260505204411 16 232 3.2 9.7 0.00 0.71 0.10 81 1015.2
20260505204305 16 226 3.2 9.7 0.00 0.71 0.10 82 1015.1
20260505204230 16 222 4.8 14.5 0.00 0.71 0.10 81 1015.1
20260505204206 16 215 3.2 9.7 0.00 0.71 0.10 81 1015.1
20260505204119 16 218 4.8 12.9 0.00 0.71 0.10 81 1015.1
20260505204108 16 222 4.8 14.5 0.00 0.71 0.10 81 1015.1
20260505203857 16 248 4.8 14.5 0.00 0.71 0.10 81 1015.1
20260505203758 16 236 6.4 14.5 0.00 0.71 0.10 81 1015.1
20260505203657 16 127 6.4 14.5 0.00 0.71 0.10 82 1015.1
20260505203557 16 238 6.4 14.5 0.00 0.71 0.10 82 1015.1
20260505203457 16 158 6.4 14.5 0.00 0.71 0.10 82 1015.2
20260505203349 16 229 6.4 14.5 0.00 0.71 0.10 82 1015.2
20260505203249 16 246 6.4 14.5 0.00 0.71 0.10 81 1015.2
20260505203149 16 229 4.8 14.5 0.00 0.71 0.10 81 1015.2
20260505203050 16 242 4.8 14.5 0.00 0.71 0.10 81 1015.1
20260505202950 16 217 4.8 11.3 0.00 0.71 0.10 81 1015.1
20260505202844 16 224 4.8 11.3 0.00 0.71 0.10 81 1015.2
20260505202745 16 235 4.8 11.3 0.00 0.71 0.10 81 1015.1
20260505202644 16 216 4.8 11.3 0.00 0.71 0.10 81 1015.1
20260505202543 16 231 4.8 11.3 0.00 0.71 0.10 82 1015.1
20260505202445 16 235 4.8 11.3 0.00 0.71 0.10 81 1015.1
20260505202338 16 186 4.8 11.3 0.00 0.71 0.10 80 1015.1
20260505202238 16 204 4.8 11.3 0.00 0.71 0.10 81 1015.1
20260505202157 16 215 3.2 12.9 0.00 0.71 0.10 80 1015.1
20260505202137 16 241 4.8 11.3 0.00 0.71 0.10 81 1015.1
20260505202055 16 160 4.8 12.9 0.00 0.71 0.10 80 1015.1
20260505202045 16 215 3.2 12.9 0.00 0.71 0.10 80 1015.1
20260505201833 16 214 3.2 12.9 0.00 0.71 0.10 81 1015.2
20260505201734 16 256 3.2 12.9 0.00 0.71 0.10 81 1015.2
20260505201653 16 159 3.2 12.9 0.00 0.71 0.10 81 1015.2
20260505201634 16 179 3.2 12.9 0.00 0.71 0.10 81 1015.2
20260505201547 16 155 4.8 12.9 0.00 0.71 0.10 81 1015.1
20260505201537 16 159 3.2 12.9 0.00 0.71 0.10 81 1015.2
20260505201326 16 250 3.2 12.9 0.00 0.71 0.10 81 1015.2
20260505201227 16 135 3.2 12.9 0.00 0.71 0.10 80 1015.2
20260505201125 16 223 3.2 12.9 0.00 0.71 0.10 80 1015.1
20260505201026 16 238 3.2 9.7 0.00 0.71 0.10 80 1015.2
20260505200927 16 224 3.2 9.7 0.00 0.71 0.10 80 1015.2
20260505200821 16 233 3.2 8.0 0.00 0.71 0.10 80 1015.2
20260505200722 16 195 4.8 11.3 0.00 0.71 0.10 80 1015.2
20260505200621 16 242 4.8 11.3 0.00 0.71 0.10 80 1015.2
20260505200521 16 245 4.8 11.3 0.00 0.71 0.10 80 1015.2
20260505200421 16 260 4.8 11.3 0.00 0.71 0.10 80 1015.2
20260505200313 16 235 4.8 11.3 0.00 0.71 0.10 81 1015.2
20260505200214 16 217 4.8 11.3 0.00 0.71 0.10 80 1015.2
20260505200137 16 235 3.2 11.3 0.00 0.71 0.10 80 1015.2
20260505200114 16 204 3.2 11.3 0.00 0.71 0.10 80 1015.3
20260505200030 16 136 3.2 11.3 0.00 0.71 0.10 80 1015.2
20260505200020 16 235 3.2 11.3 0.00 0.71 0.10 80 1015.2
20260505195814 16 167 3.2 11.3 0.00 0.71 0.10 79 1015.2
20260505195712 16 204 3.2 9.7 0.00 0.71 0.10 80 1015.3
20260505195610 16 217 3.2 9.7 0.00 0.71 0.10 80 1015.3
20260505195509 16 141 3.2 9.7 0.00 0.71 0.10 80 1015.3
20260505195413 16 143 3.2 8.0 0.00 0.71 0.10 80 1015.3
20260505195305 16 118 3.2 8.0 0.00 0.71 0.10 80 1015.3
20260505195202 16 154 3.2 8.0 0.00 0.71 0.10 80 1015.3
20260505195101 16 183 3.2 8.0 0.00 0.71 0.10 80 1015.3
20260505195001 16 221 3.2 8.0 0.00 0.71 0.10 80 1015.3
20260505194904 16 146 3.2 8.0 0.00 0.71 0.10 80 1015.3
20260505194756 16 208 3.2 8.0 0.00 0.71 0.10 79 1015.3
20260505194656 16 244 1.6 8.0 0.00 0.71 0.10 78 1015.3
20260505194556 17 236 1.6 8.0 0.00 0.71 0.10 79 1015.3
20260505194456 17 245 1.6 8.0 0.00 0.71 0.10 79 1015.3
20260505194359 17 160 1.6 8.0 0.00 0.71 0.10 79 1015.3
20260505194253 17 150 1.6 8.0 0.00 0.71 0.10 78 1015.3
20260505194154 16 136 1.6 6.4 0.00 0.71 0.10 77 1015.3
20260505194053 16 124 1.6 6.4 0.00 0.71 0.10 76 1015.3
20260505193951 16 99 1.6 6.4 0.00 0.71 0.10 76 1015.3
20260505193851 16 99 1.6 6.4 0.00 0.71 0.10 76 1015.3
20260505193743 16 124 1.6 6.4 0.00 0.71 0.10 76 1015.3
20260505193644 16 124 1.6 6.4 0.00 0.71 0.10 75 1015.3
20260505193601 16 117 1.6 6.4 0.00 0.71 0.10 75 1015.2
20260505193543 16 124 1.6 6.4 0.00 0.71 0.10 75 1015.3
20260505193503 16 104 1.6 6.4 0.00 0.71 0.10 75 1015.3
20260505193449 16 117 1.6 6.4 0.00 0.71 0.10 75 1015.2
20260505193244 16 108 1.6 6.4 0.00 0.71 0.10 75 1015.3
20260505193141 16 347 1.6 6.4 0.00 0.71 0.10 75 1015.2
20260505193042 16 347 1.6 6.4 0.00 0.71 0.10 76 1015.3
20260505192940 17 346 1.6 6.4 0.00 0.71 0.10 75 1015.3
20260505192839 17 71 0.0 4.8 0.00 0.71 0.10 76 1015.3
20260505192732 17 18 0.0 4.8 0.00 0.71 0.10 76 1015.3
20260505192632 17 15 0.0 4.8 0.00 0.71 0.10 77 1015.3
20260505192532 17 45 0.0 3.2 0.00 0.71 0.10 76 1015.3
20260505192432 17 46 0.0 3.2 0.00 0.71 0.10 76 1015.3
20260505192333 16 95 0.0 3.2 0.00 0.71 0.10 77 1015.3
20260505192227 16 76 0.0 4.8 0.00 0.71 0.10 77 1015.3
20260505192127 16 346 0.0 4.8 0.00 0.71 0.10 77 1015.3
20260505192052 16 314 0.0 4.8 0.00 0.71 0.10 76 1015.3
20260505192027 16 315 0.0 4.8 0.00 0.71 0.10 76 1015.3
20260505191941 16 315 0.0 4.8 0.00 0.71 0.10 76 1015.3
20260505191931 16 314 0.0 4.8 0.00 0.71 0.10 76 1015.3
20260505191726 16 315 1.6 4.8 0.00 0.71 0.10 77 1015.3
20260505191623 16 315 1.6 4.8 0.00 0.71 0.10 77 1015.3
20260505191523 16 315 1.6 4.8 0.00 0.71 0.10 76 1015.3
20260505191421 16 315 1.6 4.8 0.00 0.71 0.10 77 1015.3
20260505191322 16 315 0.0 4.8 0.00 0.71 0.10 77 1015.3
20260505191213 16 311 0.0 4.8 0.00 0.71 0.10 78 1015.3
20260505191114 16 310 0.0 4.8 0.00 0.71 0.10 78 1015.3
20260505191013 16 310 1.6 4.8 0.00 0.71 0.10 77 1015.3
20260505190914 16 311 1.6 4.8 0.00 0.71 0.10 77 1015.2
20260505190815 16 311 1.6 4.8 0.00 0.71 0.10 76 1015.3
20260505190714 16 310 1.6 4.8 0.00 0.71 0.10 77 1015.2
20260505190612 16 314 1.6 4.8 0.00 0.71 0.10 77 1015.3
20260505190512 16 314 1.6 4.8 0.00 0.71 0.10 79 1015.3
20260505190409 16 314 1.6 4.8 0.00 0.71 0.10 77 1015.3
20260505190309 16 314 1.6 4.8 0.00 0.71 0.10 77 1015.3
20260505190207 16 314 1.6 4.8 0.00 0.71 0.10 76 1015.3
20260505190106 16 314 1.6 4.8 0.00 0.71 0.10 76 1015.3
20260505190006 16 328 1.6 8.0 0.00 0.71 0.10 76 1015.3
20260505185903 17 326 1.6 8.0 0.00 0.71 0.10 76 1015.2
20260505185804 17 346 1.6 8.0 0.00 0.71 0.10 76 1015.3
20260505185701 17 335 1.6 8.0 0.00 0.71 0.10 76 1015.2
20260505185600 17 342 1.6 8.0 0.00 0.71 0.10 77 1015.2
20260505185500 17 328 1.6 8.0 0.00 0.71 0.10 76 1015.3
20260505185358 17 29 1.6 8.0 0.00 0.71 0.10 75 1015.2
20260505185258 17 15 1.6 8.0 0.00 0.71 0.10 75 1015.2
20260505185152 17 34 1.6 8.0 0.00 0.71 0.10 75 1015.2
20260505185051 17 0 1.6 8.0 0.00 0.71 0.10 75 1015.2
20260505184951 17 6 1.6 6.4 0.00 0.71 0.10 74 1015.2
20260505184852 17 343 1.6 6.4 0.00 0.71 0.10 75 1015.2
20260505184751 17 343 1.6 6.4 0.00 0.71 0.10 75 1015.2
20260505184645 17 50 1.6 6.4 0.00 0.71 0.10 76 1015.2
20260505184545 17 49 1.6 6.4 0.00 0.71 0.10 75 1015.2
20260505184445 17 61 1.6 6.4 0.00 0.71 0.10 76 1015.1
20260505184346 17 127 1.6 6.4 0.00 0.71 0.10 77 1015.1
20260505184247 16 127 1.6 6.4 0.00 0.71 0.10 76 1015.1
20260505184140 16 127 3.2 6.4 0.00 0.71 0.10 77 1015.1
20260505184039 16 158 3.2 6.4 0.00 0.71 0.10 78 1015.1
20260505183939 16 155 3.2 8.0 0.00 0.71 0.10 79 1015.1
20260505183840 16 68 3.2 8.0 0.00 0.71 0.10 77 1015.1
20260505183738 16 71 3.2 8.0 0.00 0.71 0.10 78 1015.1
20260505183634 16 143 3.2 8.0 0.00 0.71 0.10 78 1015.2
20260505183531 16 121 3.2 8.0 0.00 0.71 0.10 78 1015.1
20260505183431 16 186 3.2 8.0 0.00 0.71 0.10 78 1015.2
20260505183332 16 126 3.2 8.0 0.00 0.71 0.10 78 1015.2
20260505183234 16 111 1.6 8.0 0.00 0.71 0.10 78 1015.2
20260505183128 16 45 1.6 8.0 0.00 0.71 0.10 77 1015.2
20260505183027 16 95 1.6 8.0 0.00 0.71 0.10 77 1015.2
20260505182927 16 142 1.6 6.4 0.00 0.71 0.10 78 1015.2
20260505182828 16 143 1.6 6.4 0.00 0.71 0.10 78 1015.2
20260505182728 16 205 1.6 6.4 0.00 0.71 0.10 78 1015.2
20260505182624 16 135 1.6 6.4 0.00 0.71 0.10 78 1015.2
20260505182524 16 139 1.6 6.4 0.00 0.71 0.10 78 1015.2
20260505182423 16 104 1.6 6.4 0.00 0.71 0.10 78 1015.2
20260505182321 16 104 1.6 6.4 0.00 0.71 0.10 78 1015.2
20260505182221 16 150 1.6 6.4 0.00 0.71 0.10 78 1015.2
20260505182115 16 169 1.6 6.4 0.00 0.71 0.10 78 1015.2
20260505182014 16 103 0.0 3.2 0.00 0.71 0.10 78 1015.2
20260505181913 16 231 1.6 3.2 0.00 0.71 0.10 78 1015.2
20260505181814 16 167 1.6 3.2 0.00 0.71 0.10 79 1015.2
20260505181716 16 232 1.6 4.8 0.00 0.71 0.10 78 1015.2
20260505181610 16 243 1.6 4.8 0.00 0.71 0.10 78 1015.2
20260505181510 16 233 1.6 4.8 0.00 0.71 0.10 80 1015.2
20260505181431 16 243 1.6 4.8 0.00 0.71 0.10 77 1015.1
20260505181409 16 233 1.6 4.8 0.00 0.71 0.10 78 1015.2
20260505181325 16 233 1.6 4.8 0.00 0.71 0.10 78 1015.1
20260505181314 16 243 1.6 4.8 0.00 0.71 0.10 77 1015.1
20260505181101 16 236 1.6 4.8 0.00 0.71 0.10 78 1015.1
20260505181002 16 197 1.6 4.8 0.00 0.71 0.10 78 1015.1
20260505180901 16 163 1.6 4.8 0.00 0.71 0.10 78 1015.1
20260505180801 16 217 0.0 4.8 0.00 0.71 0.10 79 1015.1
20260505180705 16 27 1.6 4.8 0.00 0.71 0.10 78 1015.1
20260505180557 16 26 1.6 4.8 0.00 0.71 0.10 78 1015.1
20260505180455 16 26 1.6 6.4 0.00 0.71 0.10 77 1015.0
20260505180359 16 27 1.6 6.4 0.00 0.71 0.10 77 1015.0
20260505180255 16 26 1.6 6.4 0.00 0.71 0.10 78 1015.0
20260505180158 16 337 1.6 6.4 0.00 0.71 0.10 79 1015.0
20260505180049 16 338 1.6 6.4 0.00 0.71 0.10 81 1015.0
20260505175950 16 338 1.6 6.4 0.00 0.71 0.10 81 1015.0
20260505175850 16 108 3.2 6.4 0.00 0.71 0.10 81 1015.0
20260505175749 16 142 1.6 6.4 0.00 0.71 0.10 81 1015.0
20260505175652 16 141 1.6 6.4 0.00 0.71 0.10 82 1015.1
20260505175543 15 146 1.6 6.4 0.00 0.71 0.10 84 1015.0
20260505175444 15 143 1.6 4.8 0.00 0.71 0.10 84 1015.0
20260505175343 15 72 1.6 6.4 0.00 0.71 0.10 84 1015.0
20260505175244 15 149 1.6 6.4 0.00 0.71 0.10 84 1015.0
20260505175146 15 139 3.2 8.0 0.00 0.71 0.10 84 1015.0
20260505175041 15 103 3.2 8.0 0.00 0.71 0.10 85 1015.0
20260505174941 15 151 3.2 8.0 0.00 0.71 0.10 85 1015.0
20260505174841 15 158 3.2 8.0 0.00 0.71 0.10 85 1015.0
20260505174739 15 158 3.2 8.0 0.00 0.71 0.10 85 1015.0
20260505174640 15 217 3.2 8.0 0.00 0.71 0.10 85 1015.0
20260505174531 14 198 3.2 8.0 0.00 0.71 0.10 85 1015.0
20260505174432 14 225 3.2 8.0 0.00 0.71 0.10 86 1015.0
20260505174401 14 144 1.6 6.4 0.00 0.71 0.10 86 1015.1
20260505174332 14 194 3.2 8.0 0.00 0.71 0.10 87 1015.0
20260505174248 14 145 3.2 6.4 0.00 0.71 0.10 87 1015.1
20260505174238 14 144 1.6 6.4 0.00 0.71 0.10 86 1015.1
20260505174026 14 120 1.6 6.4 0.00 0.71 0.10 86 1015.1
20260505173925 14 126 1.6 6.4 0.00 0.71 0.10 86 1015.1
20260505173848 14 193 1.6 6.4 0.00 0.71 0.10 86 1015.0
20260505173825 14 226 1.6 6.4 0.00 0.71 0.10 86 1015.1
20260505173741 14 123 1.6 6.4 0.00 0.71 0.10 86 1015.1
20260505173731 14 193 1.6 6.4 0.00 0.71 0.10 86 1015.0
20260505173521 14 158 1.6 6.4 0.00 0.71 0.10 87 1015.1
20260505173419 14 142 1.6 6.4 0.00 0.71 0.10 87 1015.1
20260505173320 14 143 1.6 6.4 0.00 0.71 0.10 87 1015.0
20260505173220 14 140 1.6 6.4 0.00 0.71 0.10 88 1015.1
20260505173123 14 217 1.6 6.4 0.00 0.71 0.10 88 1015.1
20260505173014 14 144 1.6 6.4 0.00 0.71 0.10 88 1015.0
20260505172914 14 162 1.6 6.4 0.00 0.71 0.10 88 1015.0
20260505172813 14 153 3.2 6.4 0.00 0.71 0.10 88 1015.1
20260505172713 13 153 3.2 6.4 0.00 0.71 0.10 87 1015.0
20260505172618 14 143 3.2 6.4 0.00 0.71 0.10 88 1015.1
20260505172510 13 95 3.2 6.4 0.00 0.71 0.10 88 1015.1
20260505172408 13 110 3.2 8.0 0.00 0.71 0.10 88 1015.1
20260505172307 13 148 3.2 8.0 0.00 0.71 0.10 88 1015.0
20260505172207 13 124 3.2 8.0 0.00 0.71 0.10 88 1015.0
20260505172110 13 132 3.2 8.0 0.00 0.71 0.10 89 1015.0
20260505172004 13 138 3.2 8.0 0.00 0.71 0.10 88 1015.0
20260505171901 13 215 3.2 8.0 0.00 0.71 0.10 88 1015.0
20260505171802 13 224 1.6 8.0 0.00 0.71 0.10 88 1015.0
20260505171702 13 210 1.6 8.0 0.00 0.71 0.10 89 1015.0
20260505171603 13 160 1.6 8.0 0.00 0.71 0.10 89 1014.9
20260505171457 13 149 1.6 8.0 0.00 0.71 0.10 89 1015.0
20260505171359 13 188 1.6 8.0 0.00 0.71 0.10 89 1015.0
20260505171257 13 212 1.6 8.0 0.00 0.71 0.10 89 1015.0
20260505171157 13 198 1.6 8.0 0.00 0.71 0.10 88 1015.0
20260505171057 13 245 1.6 8.0 0.00 0.71 0.10 89 1014.9
20260505170953 13 262 1.6 8.0 0.00 0.71 0.10 89 1014.9
20260505170854 13 210 1.6 8.0 0.00 0.71 0.10 89 1015.0
20260505170753 13 210 3.2 8.0 0.00 0.71 0.10 90 1014.9
20260505170652 13 203 3.2 8.0 0.00 0.71 0.10 89 1015.0
20260505170552 13 132 1.6 8.0 0.00 0.71 0.10 89 1014.9
20260505170443 13 217 1.6 6.4 0.00 0.71 0.10 90 1014.9
20260505170344 13 215 1.6 6.4 0.00 0.71 0.10 90 1014.9
20260505170318 13 128 3.2 6.4 0.00 0.71 0.10 90 1014.9
20260505170243 13 165 1.6 6.4 0.00 0.71 0.10 90 1014.9
20260505170214 13 125 1.6 6.4 0.00 0.71 0.10 90 1014.9
20260505170204 13 128 3.2 6.4 0.00 0.71 0.10 90 1014.9
20260505165937 13 211 3.2 11.3 0.00 0.71 0.10 90 1015.0
20260505165838 13 163 3.2 11.3 0.00 0.71 0.10 90 1014.9
20260505165758 13 116 3.2 11.3 0.00 0.71 0.10 90 1014.9
20260505165738 13 153 3.2 11.3 0.00 0.71 0.10 90 1014.9
20260505165655 13 146 3.2 11.3 0.00 0.71 0.10 90 1015.0
20260505165643 13 116 3.2 11.3 0.00 0.71 0.10 90 1014.9
20260505165432 13 217 3.2 11.3 0.00 0.71 0.10 90 1014.9
20260505165332 13 143 3.2 11.3 0.00 0.71 0.10 90 1015.0
20260505165232 13 233 3.2 11.3 0.00 0.71 0.10 90 1015.0
20260505165132 13 195 3.2 11.3 0.00 0.71 0.10 90 1015.0
20260505165033 13 141 3.2 11.3 0.00 0.71 0.10 90 1015.0
20260505164930 13 218 1.6 9.7 0.00 0.71 0.10 90 1015.0
20260505164830 13 217 1.6 6.4 0.00 0.71 0.10 91 1015.0
20260505164728 13 146 3.2 6.4 0.00 0.71 0.10 91 1015.0
20260505164627 13 145 3.2 8.0 0.00 0.71 0.10 91 1015.0
20260505164528 13 119 3.2 8.0 0.00 0.71 0.10 91 1015.0
20260505164419 13 141 3.2 8.0 0.00 0.71 0.10 92 1015.0
20260505164319 13 125 3.2 8.0 0.00 0.71 0.10 91 1014.9
20260505164220 13 152 3.2 9.7 0.00 0.71 0.10 91 1015.0
20260505164120 13 141 3.2 9.7 0.00 0.71 0.10 91 1015.0
20260505164022 13 202 3.2 9.7 0.00 0.71 0.10 91 1015.0
20260505163913 13 139 3.2 9.7 0.00 0.71 0.10 91 1014.9
20260505163814 13 120 3.2 9.7 0.00 0.71 0.10 92 1015.0
20260505163713 13 117 3.2 9.7 0.00 0.71 0.10 92 1014.9
20260505163613 13 119 3.2 9.7 0.00 0.71 0.10 91 1014.9
20260505163514 13 181 3.2 9.7 0.00 0.71 0.10 91 1014.9
20260505163410 13 121 3.2 9.7 0.00 0.71 0.10 91 1015.0
20260505163308 13 129 3.2 9.7 0.00 0.71 0.10 91 1014.9
20260505163207 13 141 3.2 8.0 0.00 0.71 0.10 91 1014.9
20260505163107 13 179 3.2 8.0 0.00 0.71 0.10 92 1014.9
20260505163010 13 163 1.6 8.0 0.00 0.71 0.10 92 1014.9
20260505162903 13 133 1.6 8.0 0.00 0.71 0.10 92 1014.9
20260505162803 13 129 1.6 8.0 0.00 0.71 0.10 92 1014.9
20260505162704 13 145 1.6 8.0 0.00 0.71 0.10 92 1014.9
20260505162604 13 224 1.6 8.0 0.00 0.71 0.10 92 1014.9
20260505162503 13 197 1.6 8.0 0.00 0.71 0.10 92 1014.9
20260505162357 13 165 1.6 8.0 0.00 0.71 0.10 92 1014.9
20260505162255 13 165 1.6 8.0 0.00 0.71 0.10 92 1014.9
20260505162156 13 236 1.6 8.0 0.00 0.71 0.10 92 1014.9
20260505162056 13 241 1.6 8.0 0.00 0.71 0.10 92 1014.9
20260505161958 13 214 1.6 8.0 0.00 0.71 0.10 92 1014.9
20260505161852 13 120 1.6 8.0 0.00 0.71 0.10 92 1014.9
20260505161749 13 144 1.6 6.4 0.00 0.71 0.10 92 1014.9
20260505161650 13 158 1.6 6.4 0.00 0.71 0.10 93 1014.9
20260505161549 13 146 1.6 6.4 0.00 0.71 0.10 93 1014.9
20260505161451 13 142 1.6 6.4 0.00 0.71 0.10 93 1014.9
20260505161345 13 142 1.6 6.4 0.00 0.71 0.10 93 1014.9
20260505161246 13 131 1.6 6.4 0.00 0.71 0.10 93 1014.9
20260505161145 13 181 1.6 6.4 0.00 0.71 0.10 93 1014.9
20260505161045 13 134 1.6 6.4 0.00 0.71 0.10 93 1014.8
20260505160958 13 151 1.6 6.4 0.00 0.71 0.10 93 1014.9
20260505160839 12 136 1.6 6.4 0.00 0.71 0.10 93 1014.9
20260505160738 13 131 1.6 6.4 0.00 0.71 0.10 93 1014.9
20260505160638 12 108 1.6 6.4 0.00 0.71 0.10 93 1014.9
20260505160537 12 210 1.6 6.4 0.00 0.71 0.10 93 1014.9
20260505160439 12 150 1.6 4.8 0.00 0.71 0.10 93 1014.9
20260505160331 12 162 1.6 4.8 0.00 0.71 0.10 93 1014.9
20260505160232 12 143 1.6 4.8 0.00 0.71 0.10 93 1014.8
20260505160131 12 143 1.6 4.8 0.00 0.71 0.10 93 1014.9
20260505153258 12 174 1.6 9.7 0.00 0.71 0.10 93 1014.8
20260505153156 12 134 1.6 9.7 0.00 0.71 0.10 93 1014.8
20260505153055 12 134 1.6 9.7 0.00 0.71 0.10 93 1014.8
20260505152955 12 151 1.6 9.7 0.00 0.71 0.10 93 1014.8
20260505152857 12 124 1.6 9.7 0.00 0.71 0.10 93 1014.8
20260505152751 12 124 3.2 9.7 0.00 0.71 0.10 93 1014.7
20260505152652 12 146 3.2 9.7 0.00 0.71 0.10 93 1014.7
20260505152552 12 129 3.2 9.7 0.00 0.71 0.10 93 1014.7
20260505152451 12 134 1.6 9.7 0.00 0.71 0.10 93 1014.7
20260505152356 12 134 3.2 9.7 0.00 0.71 0.10 93 1014.7
20260505152244 12 129 1.6 9.7 0.00 0.71 0.10 93 1014.7
20260505152143 12 131 1.6 9.7 0.00 0.71 0.10 93 1014.6
20260505152043 12 179 1.6 9.7 0.00 0.71 0.10 93 1014.6
20260505151944 12 131 1.6 9.7 0.00 0.74 0.10 93 1014.7
20260505151846 12 162 1.6 8.0 0.00 0.74 0.10 93 1014.7
20260505151737 12 150 1.6 6.4 0.00 0.74 0.10 93 1014.6
20260505151638 12 117 1.6 6.4 0.00 0.74 0.10 93 1014.6
20260505151538 12 196 1.6 6.4 0.00 0.74 0.10 93 1014.6
20260505151437 12 163 1.6 8.0 0.00 0.74 0.10 93 1014.6
20260505151338 12 138 1.6 8.0 0.00 0.74 0.10 93 1014.6
20260505151236 12 121 1.6 8.0 0.00 0.74 0.10 93 1014.6
20260505151135 12 203 3.2 8.0 0.00 0.74 0.10 93 1014.6
20260505151036 12 134 3.2 8.0 0.00 0.74 0.10 93 1014.6
20260505150934 12 146 3.2 8.0 0.00 0.74 0.10 93 1014.6
20260505150832 12 134 1.6 8.0 0.00 0.74 0.10 93 1014.6
20260505150728 12 113 1.6 8.0 0.00 0.74 0.10 93 1014.6
20260505150626 12 139 1.6 8.0 0.00 0.74 0.10 93 1014.6
20260505150526 12 135 1.6 8.0 0.00 0.74 0.10 92 1014.6
20260505150426 12 150 1.6 4.8 0.00 0.74 0.10 92 1014.5
20260505150339 12 101 1.6 8.0 0.00 0.74 0.10 92 1014.5
20260505150222 12 147 1.6 8.0 0.00 0.74 0.10 92 1014.5
20260505150119 11 150 1.6 8.0 0.00 0.74 0.10 92 1014.5
20260505140616 11 136 1.6 4.8 0.00 0.74 0.10 92 1014.2
20260505140514 11 135 0.0 4.8 0.00 0.74 0.10 91 1014.2
20260505140414 11 139 0.0 4.8 0.00 0.74 0.10 91 1014.2
20260505140313 11 128 1.6 4.8 0.00 0.74 0.10 91 1014.2
20260505140218 11 129 1.6 4.8 0.00 0.74 0.10 92 1014.2
20260505140107 11 104 1.6 4.8 0.00 0.74 0.10 92 1014.2
20260505130301 11 127 3.2 9.7 0.00 0.74 0.10 91 1013.8
20260505130201 11 157 3.2 9.7 0.00 0.74 0.10 91 1013.9
20260505130111 11 134 3.2 9.7 0.00 0.74 0.10 91 1013.8
20260505124945 11 129 1.6 6.4 0.00 0.74 0.10 91 1013.8
20260505124844 11 150 1.6 6.4 0.00 0.74 0.10 91 1013.8
20260505124744 11 124 1.6 6.4 0.00 0.74 0.10 91 1013.8
20260505124643 11 123 1.6 6.4 0.00 0.74 0.10 91 1013.8
20260505124544 11 117 1.6 6.4 0.00 0.74 0.10 91 1013.7
20260505124439 11 136 1.6 6.4 0.00 0.74 0.10 91 1013.7
20260505124340 11 136 1.6 6.4 0.00 0.74 0.10 91 1013.7
20260505124300 11 141 0.0 3.2 0.00 0.74 0.10 91 1013.7
20260505124239 11 137 1.6 6.4 0.00 0.74 0.10 91 1013.7
20260505124154 11 176 0.0 6.4 0.00 0.74 0.10 91 1013.7
20260505124144 11 141 0.0 3.2 0.00 0.74 0.10 91 1013.7
20260505123938 11 141 0.0 3.2 0.00 0.74 0.10 91 1013.7
20260505123835 11 137 0.0 3.2 0.00 0.74 0.10 91 1013.7
20260505123757 11 139 0.0 3.2 0.00 0.74 0.10 91 1013.6
20260505123735 11 134 0.0 3.2 0.00 0.74 0.10 91 1013.6
20260505123649 11 139 0.0 3.2 0.00 0.74 0.10 91 1013.6
20260505123639 11 139 0.0 3.2 0.00 0.74 0.10 91 1013.6
20260505123508 11 136 1.6 4.8 0.00 0.74 0.10 91 1013.6
20260505123431 11 180 0.0 4.8 0.00 0.74 0.10 91 1013.6
20260505123356 11 205 0.0 4.8 0.00 0.74 0.10 91 1013.7
20260505123227 11 173 1.6 4.8 0.00 0.74 0.10 91 1013.6
20260505123141 11 134 1.6 4.8 0.00 0.74 0.10 91 1013.6
20260505123131 11 136 1.6 4.8 0.00 0.74 0.10 91 1013.6
20260505122921 11 137 1.6 4.8 0.00 0.74 0.10 91 1013.6
20260505122819 11 127 1.6 4.8 0.00 0.74 0.10 91 1013.7
20260505122749 11 148 1.6 6.4 0.00 0.74 0.10 91 1013.7
20260505122720 11 224 1.6 6.4 0.00 0.74 0.10 91 1013.7
20260505122636 11 131 1.6 6.4 0.00 0.74 0.10 91 1013.7
20260505122625 11 148 1.6 6.4 0.00 0.74 0.10 91 1013.7
20260505122414 11 141 1.6 6.4 0.00 0.74 0.10 91 1013.7
20260505122314 11 134 1.6 6.4 0.00 0.74 0.10 91 1013.7
20260505122239 11 138 1.6 6.4 0.00 0.74 0.10 91 1013.7
20260505122214 11 134 1.6 6.4 0.00 0.74 0.10 91 1013.7
20260505122130 11 141 1.6 6.4 0.00 0.74 0.10 91 1013.7
20260505122120 11 138 1.6 6.4 0.00 0.74 0.10 91 1013.7
20260505121914 11 147 1.6 6.4 0.00 0.74 0.10 91 1013.7
20260505121811 11 142 1.6 6.4 0.00 0.74 0.10 91 1013.7
20260505121709 11 91 3.2 6.4 0.00 0.74 0.10 91 1013.7
20260505121610 11 147 3.2 8.0 0.00 0.74 0.10 91 1013.7
20260505121509 11 113 3.2 8.0 0.00 0.74 0.10 91 1013.7
20260505121402 11 122 3.2 8.0 0.00 0.74 0.10 91 1013.7
20260505121301 11 132 3.2 8.0 0.00 0.74 0.10 91 1013.8
20260505121201 11 141 1.6 8.0 0.00 0.74 0.10 91 1013.7
20260505121102 11 144 1.6 8.0 0.00 0.74 0.10 91 1013.7
20260505121003 11 144 1.6 8.0 0.00 0.74 0.10 91 1013.7
20260505120855 11 142 1.6 8.0 0.00 0.74 0.10 91 1013.7
20260505120755 11 132 1.6 8.0 0.00 0.74 0.10 91 1013.8
20260505120655 11 135 1.6 8.0 0.00 0.74 0.10 91 1013.8
20260505120555 11 136 1.6 8.0 0.00 0.74 0.10 91 1013.9
20260505120458 11 101 0.0 4.8 0.00 0.74 0.10 91 1013.8
20260505120351 11 134 0.0 4.8 0.00 0.74 0.10 91 1013.8
20260505120249 11 203 0.0 4.8 0.00 0.74 0.10 91 1013.9
20260505120150 11 203 1.6 4.8 0.00 0.74 0.10 91 1013.9
20260505120049 11 124 1.6 3.2 0.00 0.74 0.10 91 1013.9
20260505115951 11 125 1.6 3.2 0.00 0.74 0.10 91 1013.8
20260505115843 11 125 1.6 3.2 0.00 0.74 0.10 91 1013.8
20260505115743 11 125 1.6 3.2 0.00 0.74 0.10 91 1013.9
20260505115644 11 147 1.6 4.8 0.00 0.74 0.10 91 1013.9
20260505115544 11 141 1.6 4.8 0.00 0.74 0.10 91 1013.9
20260505115445 11 141 1.6 4.8 0.00 0.74 0.10 91 1013.9
20260505115338 11 141 1.6 4.8 0.00 0.74 0.10 91 1013.9
20260505115237 11 110 1.6 4.8 0.00 0.74 0.10 91 1013.8
20260505115137 11 162 1.6 4.8 0.00 0.74 0.10 91 1013.8
20260505115037 11 161 1.6 4.8 0.00 0.74 0.10 91 1013.8
20260505114939 11 162 1.6 4.8 0.00 0.74 0.10 91 1013.8
20260505114837 11 164 1.6 4.8 0.00 0.74 0.10 91 1013.8
20260505114735 11 163 1.6 8.0 0.00 0.74 0.10 91 1013.8
20260505114653 11 129 1.6 9.7 0.00 0.74 0.10 91 1013.8
20260505114633 11 141 1.6 9.7 0.00 0.74 0.10 91 1013.8
20260505114548 11 137 1.6 9.7 0.00 0.74 0.10 91 1013.8
20260505114538 11 129 1.6 9.7 0.00 0.74 0.10 91 1013.8
20260505114328 11 200 1.6 9.7 0.00 0.74 0.10 91 1013.8
20260505114226 11 198 1.6 9.7 0.00 0.74 0.10 91 1013.8
20260505114125 11 151 1.6 9.7 0.00 0.74 0.10 91 1013.8
20260505114025 11 132 1.6 9.7 0.00 0.74 0.10 91 1013.8
20260505113929 11 129 1.6 9.7 0.00 0.74 0.10 91 1013.9
20260505113819 11 149 1.6 9.7 0.00 0.74 0.10 91 1013.9
20260505113720 11 146 1.6 9.7 0.00 0.74 0.10 91 1013.9
20260505113619 11 214 1.6 3.2 0.00 0.74 0.10 91 1013.9
20260505113520 11 191 1.6 6.4 0.00 0.74 0.10 91 1013.9
20260505113422 11 131 1.6 6.4 0.00 0.74 0.10 91 1013.9
20260505113320 11 211 1.6 6.4 0.00 0.74 0.10 91 1013.9
20260505113217 11 119 1.6 6.4 0.00 0.74 0.10 91 1013.9
20260505113134 11 118 1.6 6.4 0.00 0.74 0.10 91 1014.0
20260505113117 11 117 1.6 6.4 0.00 0.74 0.10 91 1014.0
20260505113029 11 119 1.6 6.4 0.00 0.74 0.10 91 1014.0
20260505113019 11 118 1.6 6.4 0.00 0.74 0.10 91 1014.0
20260505112813 11 119 1.6 6.4 0.00 0.74 0.10 91 1014.0
20260505112712 11 124 1.6 6.4 0.00 0.74 0.10 91 1013.9
20260505112612 11 132 1.6 6.4 0.00 0.74 0.10 91 1013.9
20260505112510 11 135 1.6 6.4 0.00 0.74 0.10 91 1013.9
20260505112410 11 133 1.6 6.4 0.00 0.74 0.10 91 1013.8
20260505112305 11 200 1.6 6.4 0.00 0.74 0.10 91 1013.8
20260505112203 11 200 1.6 6.4 0.00 0.74 0.10 91 1013.7
20260505112104 11 229 1.6 6.4 0.00 0.74 0.10 91 1013.7
20260505112003 11 231 1.6 6.4 0.00 0.74 0.10 91 1013.7
20260505111902 11 147 1.6 6.4 0.00 0.74 0.10 91 1013.7
20260505111801 11 205 1.6 6.4 0.00 0.74 0.10 91 1013.7
20260505111619 11 138 1.6 4.8 0.00 0.74 0.10 91 1013.7
20260505111559 11 200 1.6 6.4 0.00 0.74 0.10 91 1013.7
20260505111512 11 205 0.0 4.8 0.00 0.74 0.10 91 1013.7
20260505111501 11 138 1.6 4.8 0.00 0.74 0.10 91 1013.7
20260505111250 11 138 1.6 4.8 0.00 0.74 0.10 91 1013.7
20260505111149 11 138 1.6 4.8 0.00 0.74 0.10 91 1013.8
20260505111049 11 138 1.6 4.8 0.00 0.74 0.10 91 1013.8
20260505110949 11 134 1.6 4.8 0.00 0.74 0.10 91 1013.8
20260505110851 11 95 1.6 4.8 0.00 0.74 0.10 91 1013.8
20260505110744 11 147 3.2 6.4 0.00 0.74 0.10 91 1013.8
20260505110643 11 160 3.2 6.4 0.00 0.74 0.10 91 1013.9
20260505110543 11 203 1.6 6.4 0.00 0.74 0.10 91 1013.9
20260505110443 11 210 1.6 6.4 0.00 0.74 0.10 91 1013.9
20260505110345 11 83 1.6 6.4 0.00 0.74 0.10 91 1013.9
20260505110242 11 132 1.6 6.4 0.00 0.74 0.10 91 1013.9
20260505110141 11 129 1.6 6.4 0.00 0.74 0.10 91 1013.8
20260505102149 11 141 1.6 6.4 0.00 0.74 0.10 91 1014.0
20260505102049 11 122 1.6 6.4 0.00 0.74 0.10 91 1014.0
20260505101950 11 148 1.6 6.4 0.00 0.74 0.10 91 1014.0
20260505101849 11 114 1.6 6.4 0.00 0.74 0.10 91 1014.0
20260505101753 11 129 3.2 6.4 0.00 0.74 0.10 91 1014.0
20260505101643 11 152 3.2 6.4 0.00 0.74 0.10 91 1014.0
20260505101544 11 133 3.2 6.4 0.00 0.74 0.10 91 1013.9
20260505101444 11 130 3.2 6.4 0.00 0.74 0.10 91 1013.9
20260505101343 11 145 1.6 6.4 0.00 0.74 0.10 91 1013.9
20260505101246 11 129 1.6 6.4 0.00 0.74 0.10 91 1013.9
20260505101139 11 152 1.6 6.4 0.00 0.74 0.10 91 1014.0
20260505101038 11 145 1.6 6.4 0.00 0.74 0.10 91 1014.0
20260505100939 11 141 1.6 6.4 0.00 0.74 0.10 91 1014.0
20260505100837 11 110 1.6 6.4 0.00 0.74 0.10 91 1014.1
20260505100740 11 138 1.6 6.4 0.00 0.74 0.10 91 1014.1
20260505100631 11 138 1.6 6.4 0.00 0.74 0.10 91 1014.1
20260505100532 11 136 1.6 6.4 0.00 0.74 0.10 91 1014.1
20260505100432 11 139 1.6 4.8 0.00 0.74 0.10 91 1014.1
20260505100331 11 143 1.6 4.8 0.00 0.74 0.10 91 1014.1
20260505100234 11 143 1.6 4.8 0.00 0.74 0.10 91 1014.1
20260505100130 11 129 1.6 4.8 0.00 0.74 0.10 91 1014.1
20260505100029 11 141 1.6 4.8 0.00 0.74 0.10 91 1014.1
20260505095929 11 132 1.6 4.8 0.00 0.74 0.10 91 1014.1
20260505095827 11 133 1.6 4.8 0.00 0.74 0.10 91 1014.1
20260505095728 11 132 1.6 4.8 0.00 0.74 0.10 91 1014.1
20260505095619 11 134 1.6 3.2 0.00 0.74 0.10 91 1014.2
20260505095519 11 134 1.6 3.2 0.00 0.74 0.10 91 1014.1
20260505095419 11 136 1.6 3.2 0.00 0.74 0.10 91 1014.1
20260505095319 11 135 1.6 3.2 0.00 0.74 0.10 91 1014.1
20260505095223 11 136 1.6 3.2 0.00 0.74 0.10 91 1014.1
20260505095118 11 147 1.6 3.2 0.00 0.74 0.10 91 1014.1
20260505095017 11 136 1.6 4.8 0.00 0.74 0.10 91 1014.1
20260505094934 11 118 1.6 4.8 0.00 0.74 0.10 91 1014.1
20260505094917 11 134 1.6 4.8 0.00 0.74 0.10 91 1014.1
20260505094830 11 133 1.6 4.8 0.00 0.74 0.10 91 1014.1
20260505094820 11 118 1.6 4.8 0.00 0.74 0.10 91 1014.1
20260505094611 11 133 1.6 4.8 0.00 0.74 0.10 91 1014.1
20260505094511 11 134 1.6 4.8 0.00 0.74 0.10 91 1014.1
20260505094411 11 134 1.6 4.8 0.00 0.74 0.10 91 1014.1
20260505094309 11 134 1.6 6.4 0.00 0.74 0.10 91 1014.1
20260505094210 11 134 1.6 6.4 0.00 0.74 0.10 91 1014.0
20260505094102 11 138 1.6 6.4 0.00 0.74 0.10 91 1014.0
20260505094001 11 139 1.6 6.4 0.00 0.74 0.10 91 1014.0
20260505093901 11 131 1.6 6.4 0.00 0.74 0.10 91 1013.9
20260505093802 10 131 1.6 6.4 0.00 0.74 0.10 91 1013.9
20260505093702 10 131 1.6 6.4 0.00 0.74 0.10 91 1014.0
20260505093556 10 131 1.6 6.4 0.00 0.74 0.10 91 1014.0
20260505093455 10 129 1.6 6.4 0.00 0.74 0.10 91 1014.0
20260505093427 10 135 1.6 4.8 0.00 0.74 0.10 91 1014.1
20260505093357 10 134 1.6 6.4 0.00 0.74 0.10 91 1014.1
20260505093314 10 141 1.6 4.8 0.00 0.74 0.10 91 1014.1
20260505093304 10 135 1.6 4.8 0.00 0.74 0.10 91 1014.1
20260505093056 10 152 1.6 4.8 0.00 0.74 0.10 91 1014.1
20260505092953 10 134 1.6 4.8 0.00 0.74 0.10 91 1014.1
20260505092853 10 131 1.6 4.8 0.00 0.74 0.10 91 1014.2
20260505092752 10 139 1.6 4.8 0.00 0.74 0.10 91 1014.1
20260505092652 10 134 1.6 4.8 0.00 0.74 0.10 91 1014.2
20260505092546 10 149 1.6 4.8 0.00 0.74 0.10 91 1014.2
20260505092446 10 121 1.6 4.8 0.00 0.74 0.10 91 1014.2
20260505092346 10 133 1.6 4.8 0.00 0.74 0.10 91 1014.2
20260505092245 10 139 1.6 4.8 0.00 0.74 0.10 91 1014.3
20260505092145 10 133 1.6 4.8 0.00 0.74 0.10 91 1014.3
20260505092037 10 136 1.6 4.8 0.00 0.74 0.10 91 1014.2
20260505091937 10 135 1.6 4.8 0.00 0.74 0.10 91 1014.2
20260505091838 10 139 1.6 4.8 0.00 0.74 0.10 91 1014.2
20260505091737 10 146 1.6 4.8 0.00 0.74 0.10 91 1014.3
20260505091639 10 214 1.6 4.8 0.00 0.74 0.10 91 1014.3
20260505091537 10 205 1.6 6.4 0.00 0.74 0.10 91 1014.2
20260505091435 10 213 1.6 6.4 0.00 0.74 0.10 91 1014.3
20260505091354 10 154 1.6 6.4 0.00 0.74 0.10 91 1014.4
20260505091334 10 167 1.6 6.4 0.00 0.74 0.10 91 1014.3
20260505091247 10 148 1.6 6.4 0.00 0.74 0.10 91 1014.4
20260505091237 10 154 1.6 6.4 0.00 0.74 0.10 91 1014.4
20260505091029 10 113 1.6 6.4 0.00 0.74 0.10 91 1014.4
20260505090929 10 125 3.2 6.4 0.00 0.74 0.10 91 1014.4
20260505090829 10 136 3.2 6.4 0.00 0.74 0.10 91 1014.4
20260505090727 10 131 1.6 6.4 0.00 0.74 0.10 91 1014.4
20260505090627 10 136 1.6 6.4 0.00 0.74 0.10 91 1014.4
20260505090524 10 131 1.6 4.8 0.00 0.74 0.10 91 1014.4
20260505090423 10 143 1.6 4.8 0.00 0.74 0.10 91 1014.4
20260505090326 10 148 1.6 4.8 0.00 0.74 0.10 91 1014.4
20260505090221 10 148 1.6 4.8 0.00 0.74 0.10 91 1014.4
20260505090120 10 132 1.6 4.8 0.00 0.74 0.10 91 1014.4
20260505090016 10 146 1.6 4.8 0.00 0.74 0.10 91 1014.4
20260505085914 10 136 1.6 4.8 0.00 0.74 0.10 91 1014.4
20260505085813 10 142 1.6 4.8 0.00 0.74 0.10 91 1014.4
20260505085714 10 143 1.6 4.8 0.00 0.74 0.10 91 1014.4
20260505085615 10 142 1.6 4.8 0.00 0.74 0.10 91 1014.4
20260505085511 10 143 1.6 4.8 0.00 0.74 0.10 91 1014.4
20260505085411 10 122 1.6 4.8 0.03 0.74 0.10 91 1014.4
20260505085310 11 120 1.6 6.4 0.03 0.74 0.10 91 1014.4
20260505085210 11 197 1.6 8.0 0.03 0.74 0.10 91 1014.5
20260505085109 11 155 1.6 8.0 0.03 0.74 0.10 91 1014.5
20260505085003 11 143 3.2 8.0 0.03 0.74 0.10 91 1014.6
20260505084903 11 129 3.2 8.0 0.03 0.74 0.10 91 1014.5
20260505084804 11 128 3.2 8.0 0.03 0.74 0.10 91 1014.5
20260505084704 11 144 3.2 8.0 0.03 0.74 0.10 91 1014.5
20260505084602 11 131 3.2 8.0 0.03 0.74 0.10 91 1014.5
20260505084455 11 153 3.2 8.0 0.03 0.74 0.10 91 1014.6
20260505084355 11 128 3.2 8.0 0.05 0.74 0.10 91 1014.5
20260505084255 11 145 3.2 8.0 0.05 0.74 0.10 91 1014.6
20260505084156 11 166 3.2 8.0 0.05 0.74 0.10 91 1014.6
20260505084057 11 151 3.2 8.0 0.05 0.74 0.10 91 1014.6
20260505083949 11 136 1.6 8.0 0.05 0.74 0.10 91 1014.6
20260505083850 11 129 1.6 6.4 0.05 0.74 0.10 91 1014.6
20260505083750 11 139 1.6 6.4 0.05 0.74 0.10 91 1014.6
20260505083649 11 134 1.6 6.4 0.05 0.74 0.10 91 1014.6
20260505083550 11 150 1.6 6.4 0.05 0.74 0.10 91 1014.6
20260505083443 11 148 1.6 6.4 0.05 0.74 0.10 91 1014.6
20260505083343 11 139 1.6 6.4 0.05 0.74 0.10 91 1014.6
20260505083243 11 141 1.6 6.4 0.05 0.74 0.10 91 1014.6
20260505083144 11 145 1.6 6.4 0.05 0.74 0.10 91 1014.6
20260505083045 11 146 1.6 6.4 0.05 0.74 0.10 91 1014.5
20260505082940 11 145 1.6 6.4 0.05 0.74 0.10 91 1014.5
20260505082838 11 141 1.6 6.4 0.05 0.74 0.10 91 1014.5
20260505082737 11 195 1.6 6.4 0.05 0.74 0.10 91 1014.6
20260505082638 11 119 1.6 6.4 0.05 0.74 0.10 91 1014.6
20260505082538 11 114 1.6 6.4 0.05 0.74 0.10 91 1014.6